Wetterdaten: Samstag, 19.10.2013
Datum Zeit Temp. Aussen +5cm Feuchte Auss Luftdruck Regen Sonnenschein Regendauer UV Solar Windben
19.10.2013 00:00 10,6 C 9,4 C 94 % 1015,6 hPa 0,0 l/m 0 min 0 min 0,0 UV-I 0 W/m 18,0 km/h (3 Bft)
19.10.2013 00:02 10,6 C 9,4 C 94 % 1015,6 hPa 0,0 l/m 0 min 0 min 0,0 UV-I 0 W/m 0,0 km/h (0 Bft)
19.10.2013 00:06 10,7 C 9,4 C 94 % 1015,6 hPa 0,0 l/m 0 min 0 min 0,0 UV-I 0 W/m 7,7 km/h (2 Bft)
19.10.2013 00:08 10,7 C 9,4 C 94 % 1015,5 hPa 0,0 l/m 0 min 0 min 0,0 UV-I 0 W/m 15,4 km/h (3 Bft)
19.10.2013 00:10 10,7 C 9,4 C 94 % 1015,5 hPa 0,0 l/m 0 min 0 min 0,0 UV-I 0 W/m 12,9 km/h (3 Bft)
19.10.2013 00:12 10,7 C 9,4 C 94 % 1015,5 hPa 0,0 l/m 0 min 0 min 0,0 UV-I 0 W/m 7,7 km/h (2 Bft)
19.10.2013 00:14 10,7 C 9,4 C 93 % 1015,4 hPa 0,0 l/m 0 min 0 min 0,0 UV-I 0 W/m 7,7 km/h (2 Bft)
19.10.2013 00:16 10,7 C 9,4 C 93 % 1015,4 hPa 0,0 l/m 0 min 0 min 0,0 UV-I 0 W/m 7,7 km/h (2 Bft)
19.10.2013 00:18 10,7 C 9,4 C 93 % 1015,4 hPa 0,0 l/m 0 min 0 min 0,0 UV-I 0 W/m 7,7 km/h (2 Bft)
19.10.2013 00:20 10,7 C 9,4 C 93 % 1015,4 hPa 0,0 l/m 0 min 0 min 0,0 UV-I 0 W/m 12,9 km/h (3 Bft)
19.10.2013 00:22 10,7 C 9,4 C 93 % 1015,4 hPa 0,0 l/m 0 min 0 min 0,0 UV-I 0 W/m 10,3 km/h (2 Bft)
19.10.2013 00:24 10,7 C 9,4 C 93 % 1015,3 hPa 0,0 l/m 0 min 0 min 0,0 UV-I 0 W/m 0,0 km/h (0 Bft)
19.10.2013 00:26 10,7 C 9,4 C 93 % 1015,3 hPa 0,0 l/m 0 min 0 min 0,0 UV-I 0 W/m 0,0 km/h (0 Bft)
19.10.2013 00:28 10,7 C 9,4 C 93 % 1015,3 hPa 0,0 l/m 0 min 0 min 0,0 UV-I 0 W/m 0,0 km/h (0 Bft)
19.10.2013 00:30 10,6 C 9,4 C 93 % 1015,3 hPa 0,0 l/m 0 min 0 min 0,0 UV-I 0 W/m 0,0 km/h (0 Bft)
19.10.2013 00:32 10,6 C 8,9 C 93 % 1015,3 hPa 0,0 l/m 0 min 0 min 0,0 UV-I 0 W/m 0,0 km/h (0 Bft)
19.10.2013 00:34 10,6 C 8,9 C 93 % 1015,3 hPa 0,0 l/m 0 min 0 min 0,0 UV-I 0 W/m 0,0 km/h (0 Bft)
19.10.2013 00:36 10,6 C 9,4 C 93 % 1015,4 hPa 0,0 l/m 0 min 0 min 0,0 UV-I 0 W/m 5,1 km/h (1 Bft)
19.10.2013 00:38 10,6 C 9,4 C 93 % 1015,3 hPa 0,0 l/m 0 min 0 min 0,0 UV-I 0 W/m 5,1 km/h (1 Bft)
19.10.2013 00:40 10,6 C 9,4 C 93 % 1015,3 hPa 0,0 l/m 0 min 0 min 0,0 UV-I 0 W/m 0,0 km/h (0 Bft)
19.10.2013 00:42 10,6 C 8,9 C 93 % 1015,2 hPa 0,0 l/m 0 min 0 min 0,0 UV-I 0 W/m 7,7 km/h (2 Bft)
19.10.2013 00:44 10,6 C 8,9 C 93 % 1015,3 hPa 0,0 l/m 0 min 0 min 0,0 UV-I 0 W/m 7,7 km/h (2 Bft)
19.10.2013 00:46 10,6 C 8,9 C 93 % 1015,3 hPa 0,0 l/m 0 min 0 min 0,0 UV-I 0 W/m 10,3 km/h (2 Bft)
19.10.2013 00:48 10,6 C 9,4 C 93 % 1015,3 hPa 0,0 l/m 0 min 0 min 0,0 UV-I 0 W/m 10,3 km/h (2 Bft)
19.10.2013 00:50 10,6 C 9,4 C 93 % 1015,3 hPa 0,0 l/m 0 min 0 min 0,0 UV-I 0 W/m 0,0 km/h (0 Bft)
19.10.2013 00:52 10,6 C 9,4 C 93 % 1015,3 hPa 0,0 l/m 0 min 0 min 0,0 UV-I 0 W/m 0,0 km/h (0 Bft)
19.10.2013 00:54 10,6 C 8,9 C 93 % 1015,2 hPa 0,0 l/m 0 min 0 min 0,0 UV-I 0 W/m 0,0 km/h (0 Bft)
19.10.2013 00:56 10,6 C 8,9 C 93 % 1015,2 hPa 0,0 l/m 0 min 0 min 0,0 UV-I 0 W/m 5,1 km/h (1 Bft)
19.10.2013 00:58 10,6 C 8,9 C 93 % 1015,1 hPa 0,0 l/m 0 min 0 min 0,0 UV-I 0 W/m 2,6 km/h (1 Bft)
19.10.2013 01:00 10,6 C 9,4 C 92 % 1015,1 hPa 0,0 l/m 0 min 0 min 0,0 UV-I 0 W/m 12,9 km/h (3 Bft)
19.10.2013 01:02 10,6 C 9,4 C 92 % 1015,1 hPa 0,0 l/m 0 min 0 min 0,0 UV-I 0 W/m 0,0 km/h (0 Bft)
19.10.2013 01:06 10,5 C 8,9 C 92 % 1015,1 hPa 0,0 l/m 0 min 0 min 0,0 UV-I 0 W/m 2,6 km/h (1 Bft)
19.10.2013 01:08 10,5 C 8,9 C 93 % 1015,0 hPa 0,0 l/m 0 min 0 min 0,0 UV-I 0 W/m 7,7 km/h (2 Bft)
19.10.2013 01:10 10,5 C 9,4 C 93 % 1015,0 hPa 0,0 l/m 0 min 0 min 0,0 UV-I 0 W/m 2,6 km/h (1 Bft)
19.10.2013 01:12 10,5 C 9,4 C 93 % 1015,0 hPa 0,0 l/m 0 min 0 min 0,0 UV-I 0 W/m 7,7 km/h (2 Bft)
19.10.2013 01:14 10,5 C 9,4 C 93 % 1015,1 hPa 0,0 l/m 0 min 0 min 0,0 UV-I 0 W/m 0,0 km/h (0 Bft)
19.10.2013 01:16 10,5 C 9,4 C 93 % 1015,0 hPa 0,0 l/m 0 min 0 min 0,0 UV-I 0 W/m 0,0 km/h (0 Bft)
19.10.2013 01:18 10,5 C 9,4 C 93 % 1015,1 hPa 0,0 l/m 0 min 0 min 0,0 UV-I 0 W/m 7,7 km/h (2 Bft)
19.10.2013 01:20 10,5 C 9,4 C 92 % 1015,0 hPa 0,0 l/m 0 min 0 min 0,0 UV-I 0 W/m 2,6 km/h (1 Bft)
19.10.2013 01:22 10,5 C 9,4 C 92 % 1015,0 hPa 0,0 l/m 0 min 0 min 0,0 UV-I 0 W/m 7,7 km/h (2 Bft)
19.10.2013 01:24 10,5 C 9,4 C 92 % 1015,0 hPa 0,0 l/m 0 min 0 min 0,0 UV-I 0 W/m 10,3 km/h (2 Bft)
19.10.2013 01:26 10,6 C 9,4 C 92 % 1014,9 hPa 0,0 l/m 0 min 0 min 0,0 UV-I 0 W/m 7,7 km/h (2 Bft)
19.10.2013 01:28 10,6 C 9,4 C 92 % 1014,8 hPa 0,0 l/m 0 min 0 min 0,0 UV-I 0 W/m 0,0 km/h (0 Bft)
19.10.2013 01:30 10,6 C 9,4 C 92 % 1014,8 hPa 0,0 l/m 0 min 0 min 0,0 UV-I 0 W/m 2,6 km/h (1 Bft)
19.10.2013 01:32 10,6 C 9,4 C 95 % 1014,8 hPa 0,0 l/m 0 min 0 min 0,0 UV-I 0 W/m 0,0 km/h (0 Bft)
19.10.2013 01:34 10,6 C 9,4 C 92 % 1014,7 hPa 0,0 l/m 0 min 0 min 0,0 UV-I 0 W/m 5,1 km/h (1 Bft)
19.10.2013 01:36 10,6 C 9,4 C 92 % 1014,7 hPa 0,0 l/m 0 min 0 min 0,0 UV-I 0 W/m 2,6 km/h (1 Bft)
19.10.2013 01:38 10,7 C 9,4 C 92 % 1014,8 hPa 0,0 l/m 0 min 0 min 0,0 UV-I 0 W/m 0,0 km/h (0 Bft)
19.10.2013 01:40 10,7 C 9,4 C 92 % 1014,8 hPa 0,0 l/m 0 min 0 min 0,0 UV-I 0 W/m 5,1 km/h (1 Bft)
19.10.2013 01:42 10,7 C 9,4 C 91 % 1014,7 hPa 0,0 l/m 0 min 0 min 0,0 UV-I 0 W/m 5,1 km/h (1 Bft)
19.10.2013 01:44 10,7 C 9,4 C 91 % 1014,7 hPa 0,0 l/m 0 min 0 min 0,0 UV-I 0 W/m 18,0 km/h (3 Bft)
19.10.2013 01:46 10,7 C 9,4 C 91 % 1014,7 hPa 0,0 l/m 0 min 0 min 0,0 UV-I 0 W/m 5,1 km/h (1 Bft)
19.10.2013 01:48 10,7 C 9,4 C 91 % 1014,6 hPa 0,0 l/m 0 min 0 min 0,0 UV-I 0 W/m 0,0 km/h (0 Bft)
19.10.2013 01:50 10,7 C 9,4 C 91 % 1014,6 hPa 0,0 l/m 0 min 0 min 0,0 UV-I 0 W/m 15,4 km/h (3 Bft)
19.10.2013 01:52 10,7 C 9,4 C 91 % 1014,5 hPa 0,0 l/m 0 min 0 min 0,0 UV-I 0 W/m 12,9 km/h (3 Bft)
19.10.2013 01:54 10,7 C 9,4 C 91 % 1014,5 hPa 0,0 l/m 0 min 0 min 0,0 UV-I 0 W/m 12,9 km/h (3 Bft)
19.10.2013 01:56 10,7 C 9,4 C 91 % 1014,5 hPa 0,0 l/m 0 min 0 min 0,0 UV-I 0 W/m 7,7 km/h (2 Bft)
19.10.2013 01:58 10,7 C 9,4 C 91 % 1014,5 hPa 0,0 l/m 0 min 0 min 0,0 UV-I 0 W/m 10,3 km/h (2 Bft)
19.10.2013 02:00 10,7 C 9,4 C 91 % 1014,5 hPa 0,0 l/m 0 min 0 min 0,0 UV-I 0 W/m 7,7 km/h (2 Bft)
19.10.2013 02:02 10,7 C 9,4 C 91 % 1014,4 hPa 0,0 l/m 0 min 0 min 0,0 UV-I 0 W/m 15,4 km/h (3 Bft)
19.10.2013 02:06 10,7 C 9,4 C 91 % 1014,4 hPa 0,0 l/m 0 min 0 min 0,0 UV-I 0 W/m 12,9 km/h (3 Bft)
19.10.2013 02:08 10,7 C 9,4 C 91 % 1014,3 hPa 0,0 l/m 0 min 0 min 0,0 UV-I 0 W/m 5,1 km/h (1 Bft)
19.10.2013 02:10 10,7 C 9,4 C 91 % 1014,3 hPa 0,0 l/m 0 min 0 min 0,0 UV-I 0 W/m 18,0 km/h (3 Bft)
19.10.2013 02:12 10,6 C 9,4 C 91 % 1014,3 hPa 0,0 l/m 0 min 0 min 0,0 UV-I 0 W/m 7,7 km/h (2 Bft)
19.10.2013 02:14 10,6 C 9,4 C 91 % 1014,2 hPa 0,0 l/m 0 min 0 min 0,0 UV-I 0 W/m 18,0 km/h (3 Bft)
19.10.2013 02:16 10,6 C 9,4 C 91 % 1014,2 hPa 0,0 l/m 0 min 0 min 0,0 UV-I 0 W/m 7,7 km/h (2 Bft)
19.10.2013 02:18 10,6 C 9,4 C 91 % 1014,1 hPa 0,0 l/m 0 min 0 min 0,0 UV-I 0 W/m 10,3 km/h (2 Bft)
19.10.2013 02:20 10,6 C 9,4 C 91 % 1013,9 hPa 0,0 l/m 0 min 0 min 0,0 UV-I 0 W/m 12,9 km/h (3 Bft)
19.10.2013 02:22 10,6 C 9,4 C 91 % 1013,9 hPa 0,0 l/m 0 min 0 min 0,0 UV-I 0 W/m 12,9 km/h (3 Bft)
19.10.2013 02:24 10,6 C 9,4 C 91 % 1014,0 hPa 0,0 l/m 0 min 0 min 0,0 UV-I 0 W/m 5,1 km/h (1 Bft)
19.10.2013 02:26 10,6 C 9,4 C 91 % 1013,9 hPa 0,0 l/m 0 min 0 min 0,0 UV-I 0 W/m 10,3 km/h (2 Bft)
19.10.2013 02:28 10,6 C 9,4 C 91 % 1013,9 hPa 0,0 l/m 0 min 0 min 0,0 UV-I 0 W/m 0,0 km/h (0 Bft)
19.10.2013 02:30 10,6 C 9,4 C 91 % 1013,9 hPa 0,0 l/m 0 min 0 min 0,0 UV-I 0 W/m 15,4 km/h (3 Bft)
19.10.2013 02:32 10,6 C 9,4 C 91 % 1013,9 hPa 0,0 l/m 0 min 0 min 0,0 UV-I 0 W/m 25,7 km/h (4 Bft)
19.10.2013 02:34 10,6 C 9,4 C 91 % 1013,7 hPa 0,0 l/m 0 min 0 min 0,0 UV-I 0 W/m 10,3 km/h (2 Bft)
19.10.2013 02:36 10,6 C 9,4 C 91 % 1013,7 hPa 0,0 l/m 0 min 0 min 0,0 UV-I 0 W/m 2,6 km/h (1 Bft)
19.10.2013 02:38 10,6 C 9,4 C 91 % 1013,7 hPa 0,0 l/m 0 min 0 min 0,0 UV-I 0 W/m 7,7 km/h (2 Bft)
19.10.2013 02:40 10,6 C 9,4 C 91 % 1013,7 hPa 0,0 l/m 0 min 0 min 0,0 UV-I 0 W/m 10,3 km/h (2 Bft)
19.10.2013 02:42 10,6 C 9,4 C 91 % 1013,7 hPa 0,0 l/m 0 min 0 min 0,0 UV-I 0 W/m 7,7 km/h (2 Bft)
19.10.2013 02:44 10,6 C 9,4 C 91 % 1013,9 hPa 0,0 l/m 0 min 0 min 0,0 UV-I 0 W/m 23,2 km/h (4 Bft)
19.10.2013 02:46 10,6 C 9,4 C 91 % 1013,7 hPa 0,0 l/m 0 min 0 min 0,0 UV-I 0 W/m 23,2 km/h (4 Bft)
19.10.2013 02:48 10,6 C 9,4 C 91 % 1013,6 hPa 0,0 l/m 0 min 0 min 0,0 UV-I 0 W/m 5,1 km/h (1 Bft)
19.10.2013 02:50 10,6 C 9,4 C 91 % 1013,6 hPa 0,0 l/m 0 min 0 min 0,0 UV-I 0 W/m 10,3 km/h (2 Bft)
19.10.2013 02:52 10,6 C 8,9 C 91 % 1013,5 hPa 0,0 l/m 0 min 0 min 0,0 UV-I 0 W/m 7,7 km/h (2 Bft)
19.10.2013 02:54 10,5 C 8,9 C 90 % 1013,6 hPa 0,0 l/m 0 min 0 min 0,0 UV-I 0 W/m 12,9 km/h (3 Bft)
19.10.2013 02:56 10,5 C 8,9 C 90 % 1013,6 hPa 0,0 l/m 0 min 0 min 0,0 UV-I 0 W/m 15,4 km/h (3 Bft)
19.10.2013 02:58 10,4 C 8,9 C 91 % 1013,6 hPa 0,0 l/m 0 min 0 min 0,0 UV-I 0 W/m 12,9 km/h (3 Bft)
19.10.2013 03:00 10,4 C 8,9 C 91 % 1013,5 hPa 0,0 l/m 0 min 0 min 0,0 UV-I 0 W/m 12,9 km/h (3 Bft)
19.10.2013 03:02 10,4 C 8,9 C 91 % 1013,5 hPa 0,0 l/m 0 min 0 min 0,0 UV-I 0 W/m 12,9 km/h (3 Bft)
19.10.2013 03:06 10,5 C 8,9 C 90 % 1013,4 hPa 0,0 l/m 0 min 0 min 0,0 UV-I 0 W/m 10,3 km/h (2 Bft)
19.10.2013 03:08 10,4 C 8,9 C 90 % 1013,4 hPa 0,0 l/m 0 min 0 min 0,0 UV-I 0 W/m 10,3 km/h (2 Bft)
19.10.2013 03:10 10,4 C 8,9 C 90 % 1013,3 hPa 0,0 l/m 0 min 0 min 0,0 UV-I 0 W/m 5,1 km/h (1 Bft)
19.10.2013 03:12 10,4 C 8,9 C 90 % 1013,2 hPa 0,0 l/m 0 min 0 min 0,0 UV-I 0 W/m 10,3 km/h (2 Bft)
19.10.2013 03:14 10,4 C 8,9 C 90 % 1013,2 hPa 0,0 l/m 0 min 0 min 0,0 UV-I 0 W/m 7,7 km/h (2 Bft)
19.10.2013 03:16 10,4 C 8,9 C 90 % 1013,1 hPa 0,0 l/m 0 min 0 min 0,0 UV-I 0 W/m 7,7 km/h (2 Bft)
19.10.2013 03:18 10,4 C 8,9 C 90 % 1013,0 hPa 0,0 l/m 0 min 0 min 0,0 UV-I 0 W/m 18,0 km/h (3 Bft)
19.10.2013 03:20 10,4 C 8,9 C 90 % 1013,1 hPa 0,0 l/m 0 min 0 min 0,0 UV-I 0 W/m 12,9 km/h (3 Bft)
19.10.2013 03:22 10,4 C 8,9 C 90 % 1013,0 hPa 0,0 l/m 0 min 0 min 0,0 UV-I 0 W/m 10,3 km/h (2 Bft)
19.10.2013 03:24 10,4 C 8,9 C 90 % 1013,0 hPa 0,0 l/m 0 min 0 min 0,0 UV-I 0 W/m 12,9 km/h (3 Bft)
19.10.2013 03:26 10,4 C 8,9 C 90 % 1013,0 hPa 0,0 l/m 0 min 0 min 0,0 UV-I 0 W/m 12,9 km/h (3 Bft)
19.10.2013 03:28 10,4 C 8,9 C 90 % 1012,9 hPa 0,0 l/m 0 min 0 min 0,0 UV-I 0 W/m 10,3 km/h (2 Bft)
19.10.2013 03:30 10,4 C 8,9 C 90 % 1012,9 hPa 0,0 l/m 0 min 0 min 0,0 UV-I 0 W/m 15,4 km/h (3 Bft)
19.10.2013 03:32 10,4 C 8,9 C 90 % 1012,8 hPa 0,0 l/m 0 min 0 min 0,0 UV-I 0 W/m 20,6 km/h (4 Bft)
19.10.2013 03:34 10,4 C 8,9 C 90 % 1012,8 hPa 0,0 l/m 0 min 0 min 0,0 UV-I 0 W/m 18,0 km/h (3 Bft)
19.10.2013 03:36 10,4 C 8,9 C 89 % 1012,7 hPa 0,0 l/m 0 min 0 min 0,0 UV-I 0 W/m 12,9 km/h (3 Bft)
19.10.2013 03:38 10,4 C 8,9 C 89 % 1012,7 hPa 0,0 l/m 0 min 0 min 0,0 UV-I 0 W/m 7,7 km/h (2 Bft)
19.10.2013 03:40 10,4 C 8,9 C 89 % 1012,7 hPa 0,0 l/m 0 min 0 min 0,0 UV-I 0 W/m 15,4 km/h (3 Bft)
19.10.2013 03:42 10,4 C 8,9 C 89 % 1012,7 hPa 0,0 l/m 0 min 0 min 0,0 UV-I 0 W/m 15,4 km/h (3 Bft)
19.10.2013 03:44 10,4 C 8,9 C 89 % 1012,7 hPa 0,0 l/m 0 min 0 min 0,0 UV-I 0 W/m 18,0 km/h (3 Bft)
19.10.2013 03:46 10,4 C 8,9 C 89 % 1012,7 hPa 0,0 l/m 0 min 0 min 0,0 UV-I 0 W/m 15,4 km/h (3 Bft)
19.10.2013 03:48 10,4 C 8,9 C 89 % 1012,6 hPa 0,0 l/m 0 min 0 min 0,0 UV-I 0 W/m 12,9 km/h (3 Bft)
19.10.2013 03:50 10,4 C 8,9 C 89 % 1012,6 hPa 0,0 l/m 0 min 0 min 0,0 UV-I 0 W/m 7,7 km/h (2 Bft)
19.10.2013 03:52 10,4 C 8,9 C 89 % 1012,6 hPa 0,0 l/m 0 min 0 min 0,0 UV-I 0 W/m 15,4 km/h (3 Bft)
19.10.2013 03:54 10,4 C 8,9 C 89 % 1012,5 hPa 0,0 l/m 0 min 0 min 0,0 UV-I 0 W/m 20,6 km/h (4 Bft)
19.10.2013 03:56 10,4 C 8,9 C 89 % 1012,5 hPa 0,0 l/m 0 min 0 min 0,0 UV-I 0 W/m 15,4 km/h (3 Bft)
19.10.2013 03:58 10,4 C 8,9 C 89 % 1012,4 hPa 0,0 l/m 0 min 0 min 0,0 UV-I 0 W/m 10,3 km/h (2 Bft)
19.10.2013 04:00 10,3 C 8,9 C 89 % 1012,5 hPa 0,0 l/m 0 min 0 min 0,0 UV-I 0 W/m 18,0 km/h (3 Bft)
19.10.2013 04:02 10,3 C 8,9 C 89 % 1012,4 hPa 0,0 l/m 0 min 0 min 0,0 UV-I 0 W/m 12,9 km/h (3 Bft)
19.10.2013 04:06 10,3 C 8,9 C 89 % 1012,5 hPa 0,0 l/m 0 min 0 min 0,0 UV-I 0 W/m 23,2 km/h (4 Bft)
19.10.2013 04:08 10,4 C 8,9 C 89 % 1012,5 hPa 0,0 l/m 0 min 0 min 0,0 UV-I 0 W/m 15,4 km/h (3 Bft)
19.10.2013 04:10 10,4 C 8,9 C 89 % 1012,5 hPa 0,0 l/m 0 min 0 min 0,0 UV-I 0 W/m 15,4 km/h (3 Bft)
19.10.2013 04:12 10,4 C 8,9 C 89 % 1012,5 hPa 0,0 l/m 0 min 0 min 0,0 UV-I 0 W/m 12,9 km/h (3 Bft)
19.10.2013 04:14 10,4 C 8,9 C 89 % 1012,4 hPa 0,0 l/m 0 min 0 min 0,0 UV-I 0 W/m 18,0 km/h (3 Bft)
19.10.2013 04:16 10,4 C 8,9 C 89 % 1012,3 hPa 0,0 l/m 0 min 0 min 0,0 UV-I 0 W/m 10,3 km/h (2 Bft)
19.10.2013 04:18 10,4 C 8,9 C 89 % 1012,3 hPa 0,0 l/m 0 min 0 min 0,0 UV-I 0 W/m 20,6 km/h (4 Bft)
19.10.2013 04:20 10,3 C 8,9 C 89 % 1012,3 hPa 0,0 l/m 0 min 0 min 0,0 UV-I 0 W/m 15,4 km/h (3 Bft)
19.10.2013 04:22 10,4 C 8,9 C 89 % 1012,2 hPa 0,0 l/m 0 min 0 min 0,0 UV-I 0 W/m 18,0 km/h (3 Bft)
19.10.2013 04:24 10,4 C 8,9 C 88 % 1012,2 hPa 0,0 l/m 0 min 0 min 0,0 UV-I 0 W/m 23,2 km/h (4 Bft)
19.10.2013 04:26 10,4 C 8,9 C 88 % 1012,2 hPa 0,0 l/m 0 min 0 min 0,0 UV-I 0 W/m 15,4 km/h (3 Bft)
19.10.2013 04:28 10,4 C 8,9 C 88 % 1012,2 hPa 0,0 l/m 0 min 0 min 0,0 UV-I 0 W/m 28,3 km/h (4 Bft)
19.10.2013 04:30 10,4 C 8,9 C 88 % 1012,2 hPa 0,0 l/m 0 min 0 min 0,0 UV-I 0 W/m 20,6 km/h (4 Bft)
19.10.2013 04:32 10,4 C 8,9 C 88 % 1012,1 hPa 0,0 l/m 0 min 0 min 0,0 UV-I 0 W/m 18,0 km/h (3 Bft)
19.10.2013 04:34 10,4 C 8,9 C 88 % 1012,2 hPa 0,0 l/m 0 min 0 min 0,0 UV-I 0 W/m 18,0 km/h (3 Bft)
19.10.2013 04:36 10,4 C 8,9 C 88 % 1012,2 hPa 0,0 l/m 0 min 0 min 0,0 UV-I 0 W/m 18,0 km/h (3 Bft)
19.10.2013 04:38 10,4 C 8,9 C 88 % 1012,2 hPa 0,0 l/m 0 min 0 min 0,0 UV-I 0 W/m 15,4 km/h (3 Bft)
19.10.2013 04:40 10,4 C 8,9 C 88 % 1012,1 hPa 0,0 l/m 0 min 0 min 0,0 UV-I 0 W/m 15,4 km/h (3 Bft)
19.10.2013 04:42 10,4 C 8,9 C 88 % 1012,1 hPa 0,0 l/m 0 min 0 min 0,0 UV-I 0 W/m 18,0 km/h (3 Bft)
19.10.2013 04:44 10,4 C 8,9 C 88 % 1012,2 hPa 0,0 l/m 0 min 0 min 0,0 UV-I 0 W/m 25,7 km/h (4 Bft)
19.10.2013 04:46 10,4 C 8,9 C 88 % 1012,2 hPa 0,0 l/m 0 min 0 min 0,0 UV-I 0 W/m 20,6 km/h (4 Bft)
19.10.2013 04:48 10,4 C 8,9 C 88 % 1012,2 hPa 0,0 l/m 0 min 0 min 0,0 UV-I 0 W/m 12,9 km/h (3 Bft)
19.10.2013 04:50 10,4 C 8,9 C 88 % 1012,1 hPa 0,0 l/m 0 min 0 min 0,0 UV-I 0 W/m 15,4 km/h (3 Bft)
19.10.2013 04:52 10,4 C 8,9 C 88 % 1012,1 hPa 0,0 l/m 0 min 0 min 0,0 UV-I 0 W/m 18,0 km/h (3 Bft)
19.10.2013 04:54 10,4 C 8,9 C 88 % 1012,1 hPa 0,0 l/m 0 min 0 min 0,0 UV-I 0 W/m 20,6 km/h (4 Bft)
19.10.2013 04:56 10,4 C 8,9 C 88 % 1012,1 hPa 0,0 l/m 0 min 0 min 0,0 UV-I 0 W/m 15,4 km/h (3 Bft)
19.10.2013 04:58 10,4 C 8,9 C 88 % 1012,1 hPa 0,0 l/m 0 min 0 min 0,0 UV-I 0 W/m 20,6 km/h (4 Bft)
19.10.2013 05:00 10,4 C 8,9 C 88 % 1012,0 hPa 0,0 l/m 0 min 0 min 0,0 UV-I 0 W/m 12,9 km/h (3 Bft)
19.10.2013 05:02 10,4 C 8,9 C 88 % 1012,0 hPa 0,0 l/m 0 min 0 min 0,0 UV-I 0 W/m 30,9 km/h (5 Bft)
19.10.2013 05:06 10,4 C 8,9 C 88 % 1012,0 hPa 0,0 l/m 0 min 0 min 0,0 UV-I 0 W/m 15,4 km/h (3 Bft)
19.10.2013 05:08 10,4 C 8,9 C 88 % 1012,0 hPa 0,0 l/m 0 min 0 min 0,0 UV-I 0 W/m 15,4 km/h (3 Bft)
19.10.2013 05:10 10,4 C 8,9 C 88 % 1012,0 hPa 0,0 l/m 0 min 0 min 0,0 UV-I 0 W/m 12,9 km/h (3 Bft)
19.10.2013 05:12 10,3 C 8,9 C 88 % 1012,0 hPa 0,0 l/m 0 min 0 min 0,0 UV-I 0 W/m 12,9 km/h (3 Bft)
19.10.2013 05:14 10,3 C 8,9 C 88 % 1012,0 hPa 0,0 l/m 0 min 0 min 0,0 UV-I 0 W/m 20,6 km/h (4 Bft)
19.10.2013 05:16 10,3 C 8,9 C 88 % 1012,0 hPa 0,0 l/m 0 min 0 min 0,0 UV-I 0 W/m 25,7 km/h (4 Bft)
19.10.2013 05:18 10,3 C 8,9 C 88 % 1012,0 hPa 0,0 l/m 0 min 0 min 0,0 UV-I 0 W/m 28,3 km/h (4 Bft)
19.10.2013 05:20 10,3 C 8,9 C 88 % 1011,9 hPa 0,0 l/m 0 min 0 min 0,0 UV-I 0 W/m 15,4 km/h (3 Bft)
19.10.2013 05:22 10,2 C 8,9 C 88 % 1012,0 hPa 0,0 l/m 0 min 0 min 0,0 UV-I 0 W/m 20,6 km/h (4 Bft)
19.10.2013 05:24 10,2 C 8,9 C 88 % 1011,9 hPa 0,0 l/m 0 min 0 min 0,0 UV-I 0 W/m 23,2 km/h (4 Bft)
19.10.2013 05:26 10,2 C 8,9 C 88 % 1011,9 hPa 0,0 l/m 0 min 0 min 0,0 UV-I 0 W/m 18,0 km/h (3 Bft)
19.10.2013 05:28 10,2 C 8,9 C 88 % 1011,9 hPa 0,0 l/m 0 min 0 min 0,0 UV-I 0 W/m 23,2 km/h (4 Bft)
19.10.2013 05:30 10,1 C 8,9 C 88 % 1011,9 hPa 0,0 l/m 0 min 0 min 0,0 UV-I 0 W/m 18,0 km/h (3 Bft)
19.10.2013 05:32 10,1 C 8,9 C 88 % 1011,8 hPa 0,0 l/m 0 min 0 min 0,0 UV-I 0 W/m 18,0 km/h (3 Bft)
19.10.2013 05:34 10,1 C 8,9 C 88 % 1011,8 hPa 0,0 l/m 0 min 0 min 0,0 UV-I 0 W/m 12,9 km/h (3 Bft)
19.10.2013 05:36 10,1 C 8,9 C 88 % 1011,8 hPa 0,0 l/m 0 min 0 min 0,0 UV-I 0 W/m 15,4 km/h (3 Bft)
19.10.2013 05:38 10,1 C 8,3 C 88 % 1011,8 hPa 0,0 l/m 0 min 0 min 0,0 UV-I 0 W/m 15,4 km/h (3 Bft)
19.10.2013 05:40 10,0 C 8,3 C 88 % 1011,8 hPa 0,0 l/m 0 min 0 min 0,0 UV-I 0 W/m 20,6 km/h (4 Bft)
19.10.2013 05:42 10,0 C 8,3 C 88 % 1011,7 hPa 0,0 l/m 0 min 0 min 0,0 UV-I 0 W/m 15,4 km/h (3 Bft)
19.10.2013 05:44 10,0 C 8,3 C 88 % 1011,8 hPa 0,0 l/m 0 min 0 min 0,0 UV-I 0 W/m 18,0 km/h (3 Bft)
19.10.2013 05:46 10,0 C 8,3 C 88 % 1011,8 hPa 0,0 l/m 0 min 0 min 0,0 UV-I 0 W/m 20,6 km/h (4 Bft)
19.10.2013 05:48 9,9 C 8,3 C 89 % 1011,8 hPa 0,0 l/m 0 min 0 min 0,0 UV-I 0 W/m 10,3 km/h (2 Bft)
19.10.2013 05:50 9,9 C 8,3 C 89 % 1011,8 hPa 0,0 l/m 0 min 0 min 0,0 UV-I 0 W/m 10,3 km/h (2 Bft)
19.10.2013 05:52 9,9 C 8,3 C 89 % 1011,7 hPa 0,0 l/m 0 min 0 min 0,0 UV-I 0 W/m 12,9 km/h (3 Bft)
19.10.2013 05:54 9,9 C 8,3 C 89 % 1011,8 hPa 0,0 l/m 0 min 0 min 0,0 UV-I 0 W/m 20,6 km/h (4 Bft)
19.10.2013 05:56 9,9 C 8,3 C 89 % 1011,8 hPa 0,0 l/m 0 min 0 min 0,0 UV-I 0 W/m 12,9 km/h (3 Bft)
19.10.2013 05:58 9,9 C 8,3 C 89 % 1011,7 hPa 0,0 l/m 0 min 0 min 0,0 UV-I 0 W/m 0,0 km/h (0 Bft)
19.10.2013 06:00 9,9 C 8,3 C 89 % 1011,8 hPa 0,0 l/m 0 min 0 min 0,0 UV-I 0 W/m 7,7 km/h (2 Bft)
19.10.2013 06:02 9,9 C 8,3 C 89 % 1011,8 hPa 0,0 l/m 0 min 0 min 0,0 UV-I 0 W/m 12,9 km/h (3 Bft)
19.10.2013 06:06 9,9 C 8,3 C 89 % 1011,8 hPa 0,0 l/m 0 min 0 min 0,0 UV-I 0 W/m 12,9 km/h (3 Bft)
19.10.2013 06:08 9,8 C 8,3 C 89 % 1011,8 hPa 0,0 l/m 0 min 0 min 0,0 UV-I 0 W/m 12,9 km/h (3 Bft)
19.10.2013 06:10 9,8 C 8,3 C 89 % 1011,9 hPa 0,0 l/m 0 min 0 min 0,0 UV-I 0 W/m 7,7 km/h (2 Bft)
19.10.2013 06:12 9,8 C 8,3 C 89 % 1011,9 hPa 0,0 l/m 0 min 0 min 0,0 UV-I 0 W/m 12,9 km/h (3 Bft)
19.10.2013 06:14 9,8 C 8,3 C 89 % 1011,9 hPa 0,0 l/m 0 min 0 min 0,0 UV-I 0 W/m 12,9 km/h (3 Bft)
19.10.2013 06:16 9,8 C 8,3 C 89 % 1011,8 hPa 0,0 l/m 0 min 0 min 0,0 UV-I 0 W/m 7,7 km/h (2 Bft)
19.10.2013 06:18 9,8 C 8,3 C 89 % 1011,8 hPa 0,0 l/m 0 min 0 min 0,0 UV-I 0 W/m 15,4 km/h (3 Bft)
19.10.2013 06:20 9,8 C 8,3 C 89 % 1011,8 hPa 0,0 l/m 0 min 0 min 0,0 UV-I 0 W/m 5,1 km/h (1 Bft)
19.10.2013 06:22 9,7 C 8,3 C 89 % 1011,7 hPa 0,0 l/m 0 min 0 min 0,0 UV-I 0 W/m 7,7 km/h (2 Bft)
19.10.2013 06:24 9,7 C 8,3 C 89 % 1011,7 hPa 0,0 l/m 0 min 0 min 0,0 UV-I 0 W/m 10,3 km/h (2 Bft)
19.10.2013 06:26 9,7 C 8,3 C 89 % 1011,8 hPa 0,0 l/m 0 min 0 min 0,0 UV-I 0 W/m 7,7 km/h (2 Bft)
19.10.2013 06:28 9,7 C 8,3 C 89 % 1011,7 hPa 0,0 l/m 0 min 0 min 0,0 UV-I 0 W/m 5,1 km/h (1 Bft)
19.10.2013 06:30 9,7 C 8,3 C 89 % 1011,7 hPa 0,0 l/m 0 min 0 min 0,0 UV-I 0 W/m 10,3 km/h (2 Bft)
19.10.2013 06:32 9,7 C 8,3 C 89 % 1011,6 hPa 0,0 l/m 0 min 0 min 0,0 UV-I 0 W/m 7,7 km/h (2 Bft)
19.10.2013 06:34 9,7 C 8,3 C 89 % 1011,5 hPa 0,0 l/m 0 min 0 min 0,0 UV-I 0 W/m 10,3 km/h (2 Bft)
19.10.2013 06:36 9,7 C 8,3 C 89 % 1011,5 hPa 0,0 l/m 0 min 0 min 0,0 UV-I 0 W/m 5,1 km/h (1 Bft)
19.10.2013 06:38 9,7 C 8,3 C 89 % 1011,5 hPa 0,0 l/m 0 min 0 min 0,0 UV-I 0 W/m 10,3 km/h (2 Bft)
19.10.2013 06:40 9,7 C 8,3 C 89 % 1011,6 hPa 0,0 l/m 0 min 0 min 0,0 UV-I 0 W/m 12,9 km/h (3 Bft)
19.10.2013 06:42 9,7 C 8,3 C 89 % 1011,6 hPa 0,0 l/m 0 min 0 min 0,0 UV-I 0 W/m 7,7 km/h (2 Bft)
19.10.2013 06:44 9,7 C 8,3 C 89 % 1011,5 hPa 0,0 l/m 0 min 0 min 0,0 UV-I 0 W/m 12,9 km/h (3 Bft)
19.10.2013 06:46 9,7 C 8,3 C 90 % 1011,5 hPa 0,0 l/m 0 min 0 min 0,0 UV-I 0 W/m 2,6 km/h (1 Bft)
19.10.2013 06:48 9,6 C 8,3 C 90 % 1011,4 hPa 0,0 l/m 0 min 0 min 0,0 UV-I 0 W/m 10,3 km/h (2 Bft)
19.10.2013 06:50 9,6 C 8,3 C 90 % 1011,5 hPa 0,0 l/m 0 min 0 min 0,0 UV-I 0 W/m 7,7 km/h (2 Bft)
19.10.2013 06:52 9,6 C 7,8 C 90 % 1011,5 hPa 0,0 l/m 0 min 0 min 0,0 UV-I 0 W/m 7,7 km/h (2 Bft)
19.10.2013 06:54 9,6 C 7,8 C 90 % 1011,4 hPa 0,0 l/m 0 min 0 min 0,0 UV-I 0 W/m 15,4 km/h (3 Bft)
19.10.2013 06:56 9,6 C 7,8 C 90 % 1011,3 hPa 0,0 l/m 0 min 0 min 0,0 UV-I 0 W/m 12,9 km/h (3 Bft)
19.10.2013 06:58 9,6 C 7,8 C 90 % 1011,3 hPa 0,0 l/m 0 min 0 min 0,0 UV-I 0 W/m 15,4 km/h (3 Bft)
19.10.2013 07:00 9,6 C 7,8 C 90 % 1011,3 hPa 0,0 l/m 0 min 0 min 0,0 UV-I 0 W/m 7,7 km/h (2 Bft)
19.10.2013 07:02 9,6 C 7,8 C 90 % 1011,3 hPa 0,0 l/m 0 min 0 min 0,0 UV-I 0 W/m 7,7 km/h (2 Bft)
19.10.2013 07:06 9,5 C 7,8 C 90 % 1011,2 hPa 0,0 l/m 0 min 0 min 0,0 UV-I 0 W/m 12,9 km/h (3 Bft)
19.10.2013 07:08 9,5 C 7,8 C 90 % 1011,1 hPa 0,0 l/m 0 min 0 min 0,0 UV-I 0 W/m 0,0 km/h (0 Bft)
19.10.2013 07:10 9,5 C 7,8 C 90 % 1011,1 hPa 0,0 l/m 0 min 0 min 0,0 UV-I 0 W/m 7,7 km/h (2 Bft)
19.10.2013 07:12 9,5 C 7,8 C 90 % 1011,1 hPa 0,0 l/m 0 min 0 min 0,0 UV-I 0 W/m 10,3 km/h (2 Bft)
19.10.2013 07:14 9,5 C 7,8 C 90 % 1011,0 hPa 0,0 l/m 0 min 0 min 0,0 UV-I 0 W/m 7,7 km/h (2 Bft)
19.10.2013 07:16 9,5 C 7,8 C 90 % 1011,0 hPa 0,0 l/m 0 min 0 min 0,0 UV-I 0 W/m 5,1 km/h (1 Bft)
19.10.2013 07:18 9,5 C 7,8 C 90 % 1011,0 hPa 0,0 l/m 0 min 0 min 0,0 UV-I 0 W/m 7,7 km/h (2 Bft)
19.10.2013 07:20 9,4 C 7,8 C 90 % 1011,0 hPa 0,0 l/m 0 min 0 min 0,0 UV-I 0 W/m 5,1 km/h (1 Bft)
19.10.2013 07:22 9,4 C 7,8 C 90 % 1010,9 hPa 0,0 l/m 0 min 0 min 0,0 UV-I 0 W/m 15,4 km/h (3 Bft)
19.10.2013 07:24 9,4 C 7,8 C 90 % 1010,9 hPa 0,0 l/m 0 min 0 min 0,0 UV-I 0 W/m 5,1 km/h (1 Bft)
19.10.2013 07:26 9,4 C 7,8 C 90 % 1010,9 hPa 0,0 l/m 0 min 0 min 0,0 UV-I 0 W/m 10,3 km/h (2 Bft)
19.10.2013 07:28 9,4 C 7,8 C 90 % 1010,8 hPa 0,0 l/m 0 min 0 min 0,0 UV-I 0 W/m 7,7 km/h (2 Bft)
19.10.2013 07:30 9,4 C 7,8 C 90 % 1010,8 hPa 0,0 l/m 0 min 0 min 0,0 UV-I 0 W/m 12,9 km/h (3 Bft)
19.10.2013 07:32 9,4 C 7,8 C 90 % 1010,8 hPa 0,0 l/m 0 min 0 min 0,0 UV-I 0 W/m 15,4 km/h (3 Bft)
19.10.2013 07:34 9,4 C 7,8 C 90 % 1010,6 hPa 0,0 l/m 0 min 0 min 0,0 UV-I 0 W/m 15,4 km/h (3 Bft)
19.10.2013 07:36 9,4 C 7,8 C 90 % 1010,6 hPa 0,0 l/m 0 min 0 min 0,0 UV-I 0 W/m 18,0 km/h (3 Bft)
19.10.2013 07:38 9,4 C 7,8 C 90 % 1010,5 hPa 0,0 l/m 0 min 0 min 0,0 UV-I 0 W/m 12,9 km/h (3 Bft)
19.10.2013 07:40 9,4 C 8,3 C 91 % 1010,5 hPa 0,0 l/m 0 min 0 min 0,0 UV-I 0 W/m 20,6 km/h (4 Bft)
19.10.2013 07:42 9,4 C 8,3 C 91 % 1010,5 hPa 0,0 l/m 0 min 0 min 0,0 UV-I 0 W/m 12,9 km/h (3 Bft)
19.10.2013 07:44 9,4 C 7,8 C 91 % 1010,4 hPa 0,0 l/m 0 min 0 min 0,0 UV-I 0 W/m 15,4 km/h (3 Bft)
19.10.2013 07:46 9,4 C 8,3 C 91 % 1010,5 hPa 0,0 l/m 0 min 0 min 0,0 UV-I 0 W/m 5,1 km/h (1 Bft)
19.10.2013 07:48 9,4 C 7,8 C 91 % 1010,5 hPa 0,0 l/m 0 min 0 min 0,0 UV-I 0 W/m 7,7 km/h (2 Bft)
19.10.2013 07:50 9,4 C 7,8 C 91 % 1010,6 hPa 0,0 l/m 0 min 0 min 0,0 UV-I 0 W/m 10,3 km/h (2 Bft)
19.10.2013 07:52 9,4 C 7,8 C 91 % 1010,5 hPa 0,0 l/m 0 min 0 min 0,0 UV-I 0 W/m 10,3 km/h (2 Bft)
19.10.2013 07:54 9,4 C 7,8 C 91 % 1010,5 hPa 0,0 l/m 0 min 0 min 0,0 UV-I 0 W/m 12,9 km/h (3 Bft)
19.10.2013 07:56 9,4 C 7,8 C 91 % 1010,5 hPa 0,0 l/m 0 min 0 min 0,0 UV-I 0 W/m 12,9 km/h (3 Bft)
19.10.2013 07:58 9,4 C 7,8 C 91 % 1010,6 hPa 0,0 l/m 0 min 0 min 0,0 UV-I 0 W/m 10,3 km/h (2 Bft)
19.10.2013 08:00 9,4 C 7,8 C 91 % 1010,7 hPa 0,0 l/m 0 min 0 min 0,0 UV-I 0 W/m 10,3 km/h (2 Bft)
19.10.2013 08:02 9,4 C 7,8 C 91 % 1010,7 hPa 0,0 l/m 0 min 0 min 0,0 UV-I 0 W/m 12,9 km/h (3 Bft)
19.10.2013 08:06 9,4 C 7,8 C 91 % 1010,7 hPa 0,0 l/m 0 min 0 min 0,0 UV-I 5 W/m 10,3 km/h (2 Bft)
19.10.2013 08:08 9,4 C 7,8 C 91 % 1010,7 hPa 0,0 l/m 0 min 0 min 0,0 UV-I 5 W/m 15,4 km/h (3 Bft)
19.10.2013 08:10 9,3 C 7,8 C 91 % 1010,6 hPa 0,0 l/m 0 min 0 min 0,0 UV-I 5 W/m 15,4 km/h (3 Bft)
19.10.2013 08:12 9,3 C 7,8 C 91 % 1010,6 hPa 0,0 l/m 0 min 0 min 0,0 UV-I 7 W/m 5,1 km/h (1 Bft)
19.10.2013 08:14 9,3 C 7,8 C 91 % 1010,6 hPa 0,0 l/m 0 min 0 min 0,0 UV-I 9 W/m 10,3 km/h (2 Bft)
19.10.2013 08:16 9,3 C 7,8 C 91 % 1010,7 hPa 0,0 l/m 0 min 0 min 0,0 UV-I 11 W/m 12,9 km/h (3 Bft)
19.10.2013 08:18 9,3 C 7,8 C 91 % 1010,7 hPa 0,0 l/m 0 min 0 min 0,0 UV-I 11 W/m 12,9 km/h (3 Bft)
19.10.2013 08:20 9,3 C 7,8 C 91 % 1010,7 hPa 0,0 l/m 0 min 0 min 0,0 UV-I 12 W/m 23,2 km/h (4 Bft)
19.10.2013 08:22 9,3 C 7,8 C 91 % 1010,7 hPa 0,0 l/m 0 min 0 min 0,0 UV-I 12 W/m 12,9 km/h (3 Bft)
19.10.2013 08:24 9,3 C 7,8 C 91 % 1010,7 hPa 0,0 l/m 0 min 0 min 0,0 UV-I 12 W/m 18,0 km/h (3 Bft)
19.10.2013 08:26 9,4 C 7,8 C 91 % 1010,7 hPa 0,0 l/m 0 min 0 min 0,0 UV-I 12 W/m 30,9 km/h (5 Bft)
19.10.2013 08:28 9,4 C 7,8 C 91 % 1010,7 hPa 0,0 l/m 0 min 0 min 0,0 UV-I 12 W/m 10,3 km/h (2 Bft)
19.10.2013 08:30 9,4 C 7,8 C 91 % 1010,7 hPa 0,0 l/m 0 min 0 min 0,0 UV-I 14 W/m 18,0 km/h (3 Bft)
19.10.2013 08:32 9,4 C 7,8 C 91 % 1010,6 hPa 0,0 l/m 0 min 0 min 0,0 UV-I 14 W/m 20,6 km/h (4 Bft)
19.10.2013 08:34 9,4 C 7,8 C 91 % 1010,6 hPa 0,0 l/m 0 min 0 min 0,0 UV-I 16 W/m 18,0 km/h (3 Bft)
19.10.2013 08:36 9,4 C 7,8 C 91 % 1010,6 hPa 0,0 l/m 0 min 0 min 0,0 UV-I 18 W/m 12,9 km/h (3 Bft)
19.10.2013 08:38 9,4 C 7,8 C 91 % 1010,6 hPa 0,0 l/m 0 min 0 min 0,0 UV-I 18 W/m 10,3 km/h (2 Bft)
19.10.2013 08:40 9,4 C 7,8 C 91 % 1010,6 hPa 0,0 l/m 0 min 0 min 0,0 UV-I 21 W/m 10,3 km/h (2 Bft)
19.10.2013 08:42 9,4 C 7,8 C 91 % 1010,6 hPa 0,0 l/m 0 min 0 min 0,0 UV-I 25 W/m 10,3 km/h (2 Bft)
19.10.2013 08:44 9,4 C 7,8 C 91 % 1010,6 hPa 0,0 l/m 0 min 0 min 0,0 UV-I 25 W/m 12,9 km/h (3 Bft)
19.10.2013 08:46 9,4 C 8,3 C 91 % 1010,5 hPa 0,0 l/m 0 min 0 min 0,0 UV-I 25 W/m 15,4 km/h (3 Bft)
19.10.2013 08:48 9,4 C 8,3 C 91 % 1010,6 hPa 0,0 l/m 0 min 0 min 0,0 UV-I 26 W/m 12,9 km/h (3 Bft)
19.10.2013 08:50 9,4 C 8,3 C 91 % 1010,5 hPa 0,0 l/m 0 min 0 min 0,0 UV-I 30 W/m 15,4 km/h (3 Bft)
19.10.2013 08:52 9,4 C 8,3 C 91 % 1010,6 hPa 0,0 l/m 0 min 0 min 0,0 UV-I 33 W/m 10,3 km/h (2 Bft)
19.10.2013 08:54 9,5 C 8,3 C 91 % 1010,6 hPa 0,0 l/m 0 min 0 min 0,0 UV-I 35 W/m 25,7 km/h (4 Bft)
19.10.2013 08:56 9,5 C 8,3 C 91 % 1010,5 hPa 0,0 l/m 0 min 0 min 0,0 UV-I 39 W/m 20,6 km/h (4 Bft)
19.10.2013 08:58 9,6 C 8,3 C 91 % 1010,5 hPa 0,0 l/m 0 min 0 min 0,0 UV-I 42 W/m 23,2 km/h (4 Bft)
19.10.2013 09:00 9,6 C 8,3 C 91 % 1010,5 hPa 0,0 l/m 0 min 0 min 0,0 UV-I 44 W/m 18,0 km/h (3 Bft)
19.10.2013 09:02 9,7 C 8,3 C 91 % 1010,4 hPa 0,0 l/m 0 min 0 min 0,0 UV-I 46 W/m 20,6 km/h (4 Bft)
19.10.2013 09:06 9,7 C 8,9 C 91 % 1010,4 hPa 0,0 l/m 0 min 0 min 0,0 UV-I 47 W/m 20,6 km/h (4 Bft)
19.10.2013 09:08 9,8 C 8,9 C 91 % 1010,4 hPa 0,0 l/m 0 min 0 min 0,0 UV-I 44 W/m 7,7 km/h (2 Bft)
19.10.2013 09:10 9,8 C 8,9 C 91 % 1010,6 hPa 0,0 l/m 0 min 0 min 0,0 UV-I 42 W/m 23,2 km/h (4 Bft)
19.10.2013 09:12 9,8 C 8,9 C 91 % 1010,5 hPa 0,0 l/m 0 min 0 min 0,0 UV-I 60 W/m 10,3 km/h (2 Bft)
19.10.2013 09:14 9,8 C 8,9 C 91 % 1010,5 hPa 0,0 l/m 2 min 0 min 0,0 UV-I 90 W/m 12,9 km/h (3 Bft)
19.10.2013 09:16 9,9 C 8,9 C 90 % 1010,4 hPa 0,0 l/m 2 min 0 min 0,0 UV-I 102 W/m 20,6 km/h (4 Bft)
19.10.2013 09:18 9,9 C 8,9 C 91 % 1010,4 hPa 0,0 l/m 2 min 0 min 0,0 UV-I 111 W/m 12,9 km/h (3 Bft)
19.10.2013 09:20 10,0 C 8,9 C 91 % 1010,4 hPa 0,0 l/m 2 min 0 min 0,0 UV-I 123 W/m 12,9 km/h (3 Bft)
19.10.2013 09:22 10,1 C 8,9 C 91 % 1010,4 hPa 0,0 l/m 2 min 0 min 0,0 UV-I 132 W/m 18,0 km/h (3 Bft)
19.10.2013 09:24 10,1 C 8,9 C 90 % 1010,4 hPa 0,0 l/m 2 min 0 min 0,0 UV-I 134 W/m 15,4 km/h (3 Bft)
19.10.2013 09:26 10,2 C 8,9 C 90 % 1010,4 hPa 0,0 l/m 2 min 0 min 0,0 UV-I 128 W/m 15,4 km/h (3 Bft)
19.10.2013 09:28 10,2 C 8,9 C 90 % 1010,4 hPa 0,0 l/m 2 min 0 min 0,0 UV-I 123 W/m 15,4 km/h (3 Bft)
19.10.2013 09:30 10,2 C 8,9 C 90 % 1010,4 hPa 0,0 l/m 0 min 0 min 0,0 UV-I 107 W/m 20,6 km/h (4 Bft)
19.10.2013 09:32 10,3 C 8,9 C 90 % 1010,4 hPa 0,0 l/m 2 min 0 min 0,0 UV-I 132 W/m 10,3 km/h (2 Bft)
19.10.2013 09:34 10,3 C 8,9 C 90 % 1010,5 hPa 0,0 l/m 2 min 0 min 0,0 UV-I 137 W/m 20,6 km/h (4 Bft)
19.10.2013 09:36 10,3 C 8,9 C 90 % 1010,5 hPa 0,0 l/m 2 min 0 min 0,0 UV-I 146 W/m 18,0 km/h (3 Bft)
19.10.2013 09:38 10,4 C 9,4 C 90 % 1010,4 hPa 0,0 l/m 2 min 0 min 0,0 UV-I 163 W/m 20,6 km/h (4 Bft)
19.10.2013 09:40 10,4 C 9,4 C 90 % 1010,4 hPa 0,0 l/m 2 min 0 min 0,0 UV-I 176 W/m 18,0 km/h (3 Bft)
19.10.2013 09:42 10,5 C 9,4 C 90 % 1010,3 hPa 0,0 l/m 2 min 0 min 0,0 UV-I 186 W/m 20,6 km/h (4 Bft)
19.10.2013 09:44 10,6 C 9,4 C 89 % 1010,3 hPa 0,0 l/m 2 min 0 min 0,0 UV-I 204 W/m 20,6 km/h (4 Bft)
19.10.2013 09:46 10,7 C 9,4 C 89 % 1010,4 hPa 0,0 l/m 2 min 0 min 0,0 UV-I 216 W/m 20,6 km/h (4 Bft)
19.10.2013 09:48 10,7 C 9,4 C 89 % 1010,4 hPa 0,0 l/m 2 min 0 min 0,0 UV-I 232 W/m 10,3 km/h (2 Bft)
19.10.2013 09:50 10,8 C 10,0 C 89 % 1010,4 hPa 0,0 l/m 2 min 0 min 0,0 UV-I 244 W/m 23,2 km/h (4 Bft)
19.10.2013 09:52 10,9 C 10,0 C 89 % 1010,5 hPa 0,0 l/m 2 min 0 min 0,0 UV-I 248 W/m 20,6 km/h (4 Bft)
19.10.2013 09:54 11,0 C 10,0 C 89 % 1010,5 hPa 0,0 l/m 2 min 0 min 0,0 UV-I 244 W/m 23,2 km/h (4 Bft)
19.10.2013 09:56 11,1 C 10,0 C 88 % 1010,4 hPa 0,0 l/m 2 min 0 min 0,0 UV-I 234 W/m 20,6 km/h (4 Bft)
19.10.2013 09:58 11,2 C 10,0 C 88 % 1010,4 hPa 0,0 l/m 2 min 0 min 0,0 UV-I 229 W/m 18,0 km/h (3 Bft)
19.10.2013 10:00 11,3 C 10,0 C 88 % 1010,4 hPa 0,0 l/m 2 min 0 min 0,0 UV-I 225 W/m 15,4 km/h (3 Bft)
19.10.2013 10:02 11,4 C 10,0 C 88 % 1010,4 hPa 0,0 l/m 2 min 0 min 0,0 UV-I 172 W/m 23,2 km/h (4 Bft)
19.10.2013 10:06 11,5 C 10,0 C 88 % 1010,3 hPa 0,0 l/m 2 min 0 min 0,0 UV-I 225 W/m 20,6 km/h (4 Bft)
19.10.2013 10:08 11,6 C 10,0 C 87 % 1010,4 hPa 0,0 l/m 2 min 0 min 0,0 UV-I 229 W/m 25,7 km/h (4 Bft)
19.10.2013 10:10 11,7 C 10,0 C 87 % 1010,4 hPa 0,0 l/m 2 min 0 min 0,0 UV-I 232 W/m 18,0 km/h (3 Bft)
19.10.2013 10:12 11,7 C 10,0 C 87 % 1010,3 hPa 0,0 l/m 2 min 0 min 0,0 UV-I 234 W/m 20,6 km/h (4 Bft)
19.10.2013 10:14 11,8 C 10,6 C 87 % 1010,3 hPa 0,0 l/m 2 min 0 min 0,0 UV-I 246 W/m 23,2 km/h (4 Bft)
19.10.2013 10:16 11,8 C 10,6 C 87 % 1010,3 hPa 0,0 l/m 2 min 0 min 0,0 UV-I 251 W/m 15,4 km/h (3 Bft)
19.10.2013 10:18 11,9 C 10,6 C 87 % 1010,3 hPa 0,0 l/m 2 min 0 min 0,0 UV-I 257 W/m 18,0 km/h (3 Bft)
19.10.2013 10:20 11,9 C 10,6 C 86 % 1010,3 hPa 0,0 l/m 2 min 0 min 0,0 UV-I 265 W/m 23,2 km/h (4 Bft)
19.10.2013 10:22 12,0 C 10,6 C 87 % 1010,2 hPa 0,0 l/m 2 min 0 min 0,0 UV-I 267 W/m 23,2 km/h (4 Bft)
19.10.2013 10:24 12,1 C 10,6 C 86 % 1010,3 hPa 0,0 l/m 2 min 0 min 0,0 UV-I 267 W/m 15,4 km/h (3 Bft)
19.10.2013 10:26 12,1 C 10,6 C 86 % 1010,3 hPa 0,0 l/m 2 min 0 min 0,0 UV-I 260 W/m 23,2 km/h (4 Bft)
19.10.2013 10:28 12,2 C 10,6 C 86 % 1010,3 hPa 0,0 l/m 2 min 0 min 0,0 UV-I 234 W/m 30,9 km/h (5 Bft)
19.10.2013 10:30 12,2 C 10,6 C 86 % 1010,3 hPa 0,0 l/m 2 min 0 min 0,0 UV-I 264 W/m 25,7 km/h (4 Bft)
19.10.2013 10:32 12,2 C 10,6 C 86 % 1010,3 hPa 0,0 l/m 2 min 0 min 0,0 UV-I 251 W/m 20,6 km/h (4 Bft)
19.10.2013 10:34 12,3 C 10,6 C 86 % 1010,3 hPa 0,0 l/m 2 min 0 min 0,0 UV-I 246 W/m 28,3 km/h (4 Bft)
19.10.2013 10:36 12,3 C 10,6 C 86 % 1010,3 hPa 0,0 l/m 2 min 0 min 0,0 UV-I 248 W/m 25,7 km/h (4 Bft)
19.10.2013 10:38 12,3 C 11,1 C 86 % 1010,3 hPa 0,0 l/m 2 min 0 min 0,0 UV-I 234 W/m 25,7 km/h (4 Bft)
19.10.2013 10:40 12,4 C 11,1 C 86 % 1010,3 hPa 0,0 l/m 2 min 0 min 0,0 UV-I 265 W/m 20,6 km/h (4 Bft)
19.10.2013 10:42 12,4 C 11,1 C 85 % 1010,3 hPa 0,0 l/m 2 min 0 min 0,0 UV-I 258 W/m 10,3 km/h (2 Bft)
19.10.2013 10:44 12,5 C 11,1 C 85 % 1010,3 hPa 0,0 l/m 2 min 0 min 0,0 UV-I 281 W/m 25,7 km/h (4 Bft)
19.10.2013 10:46 12,6 C 11,1 C 85 % 1010,3 hPa 0,0 l/m 2 min 0 min 0,0 UV-I 244 W/m 23,2 km/h (4 Bft)
19.10.2013 10:48 12,7 C 11,1 C 86 % 1010,3 hPa 0,0 l/m 2 min 0 min 0,0 UV-I 271 W/m 12,9 km/h (3 Bft)
19.10.2013 10:50 12,7 C 11,1 C 86 % 1010,3 hPa 0,0 l/m 2 min 0 min 0,0 UV-I 278 W/m 12,9 km/h (3 Bft)
19.10.2013 10:52 12,8 C 11,1 C 85 % 1010,3 hPa 0,0 l/m 2 min 0 min 0,0 UV-I 299 W/m 25,7 km/h (4 Bft)
19.10.2013 10:54 12,8 C 11,7 C 85 % 1010,3 hPa 0,0 l/m 2 min 0 min 0,0 UV-I 316 W/m 23,2 km/h (4 Bft)
19.10.2013 10:56 12,9 C 11,7 C 85 % 1010,3 hPa 0,0 l/m 2 min 0 min 0,5 UV-I 339 W/m 10,3 km/h (2 Bft)
19.10.2013 10:58 12,9 C 11,7 C 85 % 1010,3 hPa 0,0 l/m 2 min 0 min 0,5 UV-I 339 W/m 20,6 km/h (4 Bft)
19.10.2013 11:00 13,1 C 11,7 C 85 % 1010,3 hPa 0,0 l/m 2 min 0 min 0,5 UV-I 339 W/m 25,7 km/h (4 Bft)
19.10.2013 11:02 13,1 C 11,7 C 84 % 1010,3 hPa 0,0 l/m 2 min 0 min 0,5 UV-I 338 W/m 28,3 km/h (4 Bft)
19.10.2013 11:06 13,2 C 11,7 C 84 % 1010,3 hPa 0,0 l/m 2 min 0 min 0,5 UV-I 350 W/m 28,3 km/h (4 Bft)
19.10.2013 11:08 13,3 C 11,7 C 84 % 1010,2 hPa 0,0 l/m 2 min 0 min 0,0 UV-I 260 W/m 23,2 km/h (4 Bft)
19.10.2013 11:10 13,3 C 11,7 C 84 % 1010,2 hPa 0,0 l/m 2 min 0 min 0,0 UV-I 251 W/m 15,4 km/h (3 Bft)
19.10.2013 11:12 13,4 C 11,7 C 84 % 1010,3 hPa 0,0 l/m 0 min 0 min 0,0 UV-I 125 W/m 28,3 km/h (4 Bft)
19.10.2013 11:14 13,3 C 11,7 C 84 % 1010,3 hPa 0,0 l/m 0 min 0 min 0,0 UV-I 156 W/m 18,0 km/h (3 Bft)
19.10.2013 11:16 13,2 C 11,7 C 84 % 1010,2 hPa 0,0 l/m 0 min 0 min 0,0 UV-I 197 W/m 18,0 km/h (3 Bft)
19.10.2013 11:18 13,2 C 11,7 C 84 % 1010,2 hPa 0,0 l/m 2 min 0 min 0,5 UV-I 288 W/m 15,4 km/h (3 Bft)
19.10.2013 11:20 13,2 C 11,7 C 84 % 1010,2 hPa 0,0 l/m 2 min 0 min 0,6 UV-I 332 W/m 15,4 km/h (3 Bft)
19.10.2013 11:22 13,3 C 12,2 C 85 % 1010,1 hPa 0,0 l/m 2 min 0 min 0,6 UV-I 315 W/m 12,9 km/h (3 Bft)
19.10.2013 11:24 13,4 C 12,2 C 85 % 1010,1 hPa 0,0 l/m 2 min 0 min 0,6 UV-I 288 W/m 25,7 km/h (4 Bft)
19.10.2013 11:26 13,5 C 12,2 C 84 % 1010,2 hPa 0,0 l/m 2 min 0 min 0,5 UV-I 239 W/m 23,2 km/h (4 Bft)
19.10.2013 11:28 13,6 C 12,2 C 84 % 1010,1 hPa 0,0 l/m 2 min 0 min 0,5 UV-I 227 W/m 20,6 km/h (4 Bft)
19.10.2013 11:30 13,6 C 12,2 C 84 % 1010,2 hPa 0,0 l/m 2 min 0 min 0,6 UV-I 262 W/m 20,6 km/h (4 Bft)
19.10.2013 11:32 13,6 C 12,2 C 84 % 1010,1 hPa 0,0 l/m 2 min 0 min 0,7 UV-I 287 W/m 10,3 km/h (2 Bft)
19.10.2013 11:34 13,7 C 12,2 C 84 % 1010,1 hPa 0,0 l/m 2 min 0 min 0,7 UV-I 353 W/m 18,0 km/h (3 Bft)
19.10.2013 11:36 13,8 C 12,2 C 84 % 1010,2 hPa 0,0 l/m 2 min 0 min 0,7 UV-I 350 W/m 20,6 km/h (4 Bft)
19.10.2013 11:38 13,8 C 12,2 C 83 % 1010,1 hPa 0,0 l/m 2 min 0 min 0,8 UV-I 376 W/m 28,3 km/h (4 Bft)
19.10.2013 11:40 13,9 C 12,2 C 83 % 1010,2 hPa 0,0 l/m 2 min 0 min 0,8 UV-I 339 W/m 12,9 km/h (3 Bft)
19.10.2013 11:42 14,1 C 12,8 C 84 % 1010,2 hPa 0,0 l/m 2 min 0 min 0,8 UV-I 411 W/m 10,3 km/h (2 Bft)
19.10.2013 11:44 14,2 C 12,8 C 84 % 1010,1 hPa 0,0 l/m 2 min 0 min 0,8 UV-I 355 W/m 10,3 km/h (2 Bft)
19.10.2013 11:46 14,3 C 12,8 C 83 % 1010,1 hPa 0,0 l/m 2 min 0 min 0,9 UV-I 364 W/m 12,9 km/h (3 Bft)
19.10.2013 11:48 14,4 C 12,8 C 83 % 1010,2 hPa 0,0 l/m 2 min 0 min 0,8 UV-I 248 W/m 20,6 km/h (4 Bft)
19.10.2013 11:50 14,5 C 12,8 C 82 % 1010,2 hPa 0,0 l/m 2 min 0 min 0,8 UV-I 308 W/m 10,3 km/h (2 Bft)
19.10.2013 11:52 14,6 C 12,8 C 82 % 1010,1 hPa 0,0 l/m 2 min 0 min 0,8 UV-I 334 W/m 10,3 km/h (2 Bft)
19.10.2013 11:54 14,7 C 13,3 C 82 % 1010,1 hPa 0,0 l/m 0 min 0 min 0,8 UV-I 220 W/m 15,4 km/h (3 Bft)
19.10.2013 11:56 14,7 C 13,3 C 82 % 1010,1 hPa 0,0 l/m 2 min 0 min 0,8 UV-I 294 W/m 18,0 km/h (3 Bft)
19.10.2013 11:58 14,6 C 13,3 C 82 % 1010,1 hPa 0,0 l/m 2 min 0 min 0,8 UV-I 294 W/m 15,4 km/h (3 Bft)
19.10.2013 12:00 14,6 C 13,3 C 82 % 1010,1 hPa 0,0 l/m 2 min 0 min 0,8 UV-I 288 W/m 15,4 km/h (3 Bft)
19.10.2013 12:02 14,6 C 13,3 C 82 % 1010,1 hPa 0,0 l/m 2 min 0 min 0,8 UV-I 285 W/m 23,2 km/h (4 Bft)
19.10.2013 12:06 14,7 C 13,3 C 83 % 1010,1 hPa 0,0 l/m 2 min 0 min 0,9 UV-I 311 W/m 23,2 km/h (4 Bft)
19.10.2013 12:08 14,8 C 13,3 C 83 % 1010,1 hPa 0,0 l/m 2 min 0 min 0,9 UV-I 357 W/m 12,9 km/h (3 Bft)
19.10.2013 12:10 14,9 C 13,3 C 82 % 1010,1 hPa 0,0 l/m 2 min 0 min 1,0 UV-I 371 W/m 15,4 km/h (3 Bft)
19.10.2013 12:12 15,0 C 13,9 C 83 % 1010,0 hPa 0,0 l/m 2 min 0 min 1,0 UV-I 404 W/m 18,0 km/h (3 Bft)
19.10.2013 12:14 15,1 C 13,9 C 82 % 1010,0 hPa 0,0 l/m 2 min 0 min 0,9 UV-I 401 W/m 10,3 km/h (2 Bft)
19.10.2013 12:16 15,3 C 13,9 C 82 % 1010,0 hPa 0,0 l/m 2 min 0 min 0,9 UV-I 394 W/m 12,9 km/h (3 Bft)
19.10.2013 12:18 15,4 C 13,9 C 82 % 1010,0 hPa 0,0 l/m 2 min 0 min 1,0 UV-I 325 W/m 33,5 km/h (5 Bft)
19.10.2013 12:20 15,4 C 13,9 C 80 % 1010,0 hPa 0,0 l/m 2 min 0 min 0,9 UV-I 383 W/m 25,7 km/h (4 Bft)
19.10.2013 12:22 15,4 C 13,9 C 81 % 1010,0 hPa 0,0 l/m 2 min 0 min 1,0 UV-I 392 W/m 12,9 km/h (3 Bft)
19.10.2013 12:24 15,5 C 13,9 C 81 % 1009,9 hPa 0,0 l/m 2 min 0 min 0,9 UV-I 322 W/m 10,3 km/h (2 Bft)
19.10.2013 12:26 15,7 C 14,4 C 81 % 1009,9 hPa 0,0 l/m 2 min 0 min 0,9 UV-I 392 W/m 12,9 km/h (3 Bft)
19.10.2013 12:28 15,8 C 14,4 C 81 % 1009,8 hPa 0,0 l/m 2 min 0 min 0,9 UV-I 371 W/m 23,2 km/h (4 Bft)
19.10.2013 12:30 15,8 C 14,4 C 80 % 1009,9 hPa 0,0 l/m 2 min 0 min 0,8 UV-I 329 W/m 15,4 km/h (3 Bft)
19.10.2013 12:32 15,7 C 14,4 C 79 % 1010,0 hPa 0,0 l/m 2 min 0 min 0,7 UV-I 278 W/m 18,0 km/h (3 Bft)
19.10.2013 12:34 15,7 C 14,4 C 80 % 1009,9 hPa 0,0 l/m 2 min 0 min 0,7 UV-I 306 W/m 18,0 km/h (3 Bft)
19.10.2013 12:36 15,6 C 14,4 C 79 % 1009,9 hPa 0,0 l/m 2 min 0 min 0,7 UV-I 306 W/m 15,4 km/h (3 Bft)
19.10.2013 12:38 15,6 C 14,4 C 80 % 1009,9 hPa 0,0 l/m 2 min 0 min 0,7 UV-I 323 W/m 18,0 km/h (3 Bft)
19.10.2013 12:40 15,5 C 14,4 C 80 % 1009,9 hPa 0,0 l/m 2 min 0 min 0,8 UV-I 306 W/m 25,7 km/h (4 Bft)
19.10.2013 12:42 15,6 C 14,4 C 81 % 1009,8 hPa 0,0 l/m 2 min 0 min 0,8 UV-I 311 W/m 20,6 km/h (4 Bft)
19.10.2013 12:44 15,6 C 14,4 C 81 % 1009,8 hPa 0,0 l/m 2 min 0 min 0,8 UV-I 352 W/m 12,9 km/h (3 Bft)
19.10.2013 12:46 15,7 C 15,0 C 82 % 1009,7 hPa 0,0 l/m 2 min 0 min 0,9 UV-I 452 W/m 7,7 km/h (2 Bft)
19.10.2013 12:48 15,8 C 15,0 C 81 % 1009,7 hPa 0,0 l/m 2 min 0 min 0,9 UV-I 345 W/m 10,3 km/h (2 Bft)
19.10.2013 12:50 15,9 C 15,0 C 80 % 1009,8 hPa 0,0 l/m 2 min 0 min 0,9 UV-I 329 W/m 18,0 km/h (3 Bft)
19.10.2013 12:52 16,0 C 15,0 C 81 % 1009,8 hPa 0,0 l/m 2 min 0 min 0,9 UV-I 413 W/m 12,9 km/h (3 Bft)
19.10.2013 12:54 16,1 C 15,0 C 80 % 1009,7 hPa 0,0 l/m 2 min 0 min 0,9 UV-I 441 W/m 18,0 km/h (3 Bft)
19.10.2013 12:56 16,2 C 15,6 C 80 % 1009,7 hPa 0,0 l/m 2 min 0 min 0,9 UV-I 322 W/m 12,9 km/h (3 Bft)
19.10.2013 12:58 16,2 C 15,0 C 80 % 1009,7 hPa 0,0 l/m 2 min 0 min 0,9 UV-I 279 W/m 25,7 km/h (4 Bft)
19.10.2013 13:00 16,2 C 15,0 C 79 % 1009,7 hPa 0,0 l/m 2 min 0 min 0,9 UV-I 292 W/m 12,9 km/h (3 Bft)
19.10.2013 13:02 16,1 C 15,0 C 79 % 1009,7 hPa 0,0 l/m 2 min 0 min 0,9 UV-I 394 W/m 25,7 km/h (4 Bft)
19.10.2013 13:06 16,3 C 15,0 C 80 % 1009,5 hPa 0,0 l/m 2 min 0 min 0,8 UV-I 350 W/m 15,4 km/h (3 Bft)
19.10.2013 13:08 16,4 C 15,0 C 79 % 1009,6 hPa 0,0 l/m 2 min 0 min 0,8 UV-I 304 W/m 23,2 km/h (4 Bft)
19.10.2013 13:10 16,4 C 15,0 C 79 % 1009,6 hPa 0,0 l/m 0 min 0 min 0,8 UV-I 237 W/m 20,6 km/h (4 Bft)
19.10.2013 13:12 16,4 C 15,0 C 79 % 1009,6 hPa 0,0 l/m 0 min 0 min 0,8 UV-I 227 W/m 18,0 km/h (3 Bft)
19.10.2013 13:14 16,3 C 15,0 C 79 % 1009,5 hPa 0,0 l/m 2 min 0 min 0,8 UV-I 274 W/m 15,4 km/h (3 Bft)
19.10.2013 13:16 16,3 C 15,0 C 79 % 1009,5 hPa 0,0 l/m 0 min 0 min 0,8 UV-I 258 W/m 15,4 km/h (3 Bft)
19.10.2013 13:18 16,3 C 15,0 C 79 % 1009,5 hPa 0,0 l/m 2 min 0 min 0,8 UV-I 283 W/m 7,7 km/h (2 Bft)
19.10.2013 13:20 16,3 C 15,0 C 79 % 1009,4 hPa 0,0 l/m 0 min 0 min 0,8 UV-I 216 W/m 20,6 km/h (4 Bft)
19.10.2013 13:22 16,2 C 15,0 C 79 % 1009,4 hPa 0,0 l/m 2 min 0 min 0,9 UV-I 272 W/m 15,4 km/h (3 Bft)
19.10.2013 13:24 16,3 C 15,0 C 80 % 1009,4 hPa 0,0 l/m 2 min 0 min 0,9 UV-I 325 W/m 12,9 km/h (3 Bft)
19.10.2013 13:26 16,3 C 15,0 C 80 % 1009,5 hPa 0,0 l/m 0 min 0 min 0,9 UV-I 260 W/m 18,0 km/h (3 Bft)
19.10.2013 13:28 16,3 C 15,0 C 80 % 1009,4 hPa 0,0 l/m 2 min 0 min 1,0 UV-I 278 W/m 12,9 km/h (3 Bft)
19.10.2013 13:30 16,4 C 15,0 C 80 % 1009,3 hPa 0,0 l/m 2 min 0 min 1,2 UV-I 362 W/m 15,4 km/h (3 Bft)
19.10.2013 13:32 16,6 C 15,6 C 80 % 1009,2 hPa 0,0 l/m 2 min 0 min 1,3 UV-I 513 W/m 10,3 km/h (2 Bft)
19.10.2013 13:34 16,8 C 15,6 C 80 % 1009,2 hPa 0,0 l/m 2 min 0 min 1,3 UV-I 485 W/m 10,3 km/h (2 Bft)
19.10.2013 13:36 17,1 C 15,6 C 79 % 1009,2 hPa 0,0 l/m 2 min 0 min 1,3 UV-I 434 W/m 12,9 km/h (3 Bft)
19.10.2013 13:38 17,2 C 16,1 C 78 % 1009,2 hPa 0,0 l/m 2 min 0 min 1,2 UV-I 360 W/m 10,3 km/h (2 Bft)
19.10.2013 13:40 17,3 C 16,1 C 78 % 1009,2 hPa 0,0 l/m 2 min 0 min 1,1 UV-I 320 W/m 7,7 km/h (2 Bft)
19.10.2013 13:42 17,4 C 16,1 C 78 % 1009,1 hPa 0,0 l/m 2 min 0 min 1,1 UV-I 316 W/m 15,4 km/h (3 Bft)
19.10.2013 13:44 17,3 C 16,1 C 78 % 1009,1 hPa 0,0 l/m 2 min 0 min 1,0 UV-I 267 W/m 15,4 km/h (3 Bft)
19.10.2013 13:46 17,3 C 15,6 C 78 % 1009,1 hPa 0,0 l/m 2 min 0 min 1,0 UV-I 290 W/m 12,9 km/h (3 Bft)
19.10.2013 13:48 17,2 C 15,6 C 78 % 1009,2 hPa 0,0 l/m 2 min 0 min 1,1 UV-I 348 W/m 20,6 km/h (4 Bft)
19.10.2013 13:50 17,1 C 15,6 C 78 % 1009,1 hPa 0,0 l/m 2 min 0 min 1,1 UV-I 364 W/m 12,9 km/h (3 Bft)
19.10.2013 13:52 17,2 C 15,6 C 78 % 1009,2 hPa 0,0 l/m 2 min 0 min 1,1 UV-I 366 W/m 0,0 km/h (0 Bft)
19.10.2013 13:54 17,3 C 15,6 C 78 % 1009,2 hPa 0,0 l/m 2 min 0 min 1,1 UV-I 366 W/m 0,0 km/h (0 Bft)
19.10.2013 13:56 17,3 C 16,1 C 78 % 1009,2 hPa 0,0 l/m 0 min 0 min 0,9 UV-I 251 W/m 18,0 km/h (3 Bft)
19.10.2013 13:58 17,2 C 15,6 C 77 % 1009,2 hPa 0,0 l/m 0 min 0 min 0,8 UV-I 199 W/m 18,0 km/h (3 Bft)
19.10.2013 14:00 17,1 C 15,6 C 77 % 1009,2 hPa 0,0 l/m 0 min 0 min 0,8 UV-I 204 W/m 15,4 km/h (3 Bft)
19.10.2013 14:02 16,9 C 15,6 C 78 % 1009,2 hPa 0,0 l/m 2 min 0 min 0,8 UV-I 287 W/m 12,9 km/h (3 Bft)
19.10.2013 14:06 16,8 C 15,6 C 79 % 1009,2 hPa 0,0 l/m 2 min 0 min 0,9 UV-I 297 W/m 18,0 km/h (3 Bft)
19.10.2013 14:08 16,8 C 15,6 C 79 % 1009,2 hPa 0,0 l/m 0 min 0 min 0,8 UV-I 213 W/m 12,9 km/h (3 Bft)
19.10.2013 14:10 16,9 C 15,6 C 79 % 1009,2 hPa 0,0 l/m 0 min 0 min 0,7 UV-I 193 W/m 10,3 km/h (2 Bft)
19.10.2013 14:12 16,9 C 15,6 C 79 % 1009,1 hPa 0,0 l/m 0 min 0 min 0,8 UV-I 225 W/m 7,7 km/h (2 Bft)
19.10.2013 14:14 16,9 C 15,6 C 80 % 1009,1 hPa 0,0 l/m 2 min 0 min 0,9 UV-I 308 W/m 15,4 km/h (3 Bft)
19.10.2013 14:16 16,9 C 16,1 C 80 % 1009,1 hPa 0,0 l/m 2 min 0 min 0,8 UV-I 274 W/m 12,9 km/h (3 Bft)
19.10.2013 14:18 17,0 C 16,1 C 80 % 1009,1 hPa 0,0 l/m 0 min 0 min 0,8 UV-I 237 W/m 23,2 km/h (4 Bft)
19.10.2013 14:20 16,9 C 16,1 C 79 % 1009,1 hPa 0,0 l/m 0 min 0 min 0,7 UV-I 216 W/m 15,4 km/h (3 Bft)
19.10.2013 14:22 16,9 C 16,1 C 79 % 1009,1 hPa 0,0 l/m 2 min 0 min 0,8 UV-I 260 W/m 5,1 km/h (1 Bft)
19.10.2013 14:24 17,0 C 16,1 C 80 % 1009,1 hPa 0,0 l/m 2 min 0 min 0,8 UV-I 257 W/m 10,3 km/h (2 Bft)
19.10.2013 14:26 17,1 C 16,1 C 80 % 1009,1 hPa 0,0 l/m 2 min 0 min 0,8 UV-I 264 W/m 10,3 km/h (2 Bft)
19.10.2013 14:28 17,1 C 16,1 C 80 % 1009,0 hPa 0,0 l/m 0 min 0 min 0,7 UV-I 244 W/m 18,0 km/h (3 Bft)
19.10.2013 14:30 17,1 C 16,1 C 79 % 1009,1 hPa 0,0 l/m 0 min 0 min 0,7 UV-I 221 W/m 12,9 km/h (3 Bft)
19.10.2013 14:32 17,2 C 16,1 C 79 % 1009,1 hPa 0,0 l/m 2 min 0 min 0,7 UV-I 315 W/m 10,3 km/h (2 Bft)
19.10.2013 14:34 17,2 C 16,1 C 80 % 1009,0 hPa 0,0 l/m 2 min 0 min 0,8 UV-I 339 W/m 10,3 km/h (2 Bft)
19.10.2013 14:36 17,4 C 16,1 C 80 % 1009,0 hPa 0,0 l/m 2 min 0 min 0,8 UV-I 302 W/m 0,0 km/h (0 Bft)
19.10.2013 14:38 17,5 C 16,1 C 79 % 1009,0 hPa 0,0 l/m 0 min 0 min 0,6 UV-I 214 W/m 18,0 km/h (3 Bft)
19.10.2013 14:40 17,5 C 16,1 C 79 % 1008,9 hPa 0,0 l/m 0 min 0 min 0,6 UV-I 211 W/m 5,1 km/h (1 Bft)
19.10.2013 14:42 17,5 C 16,1 C 79 % 1009,0 hPa 0,0 l/m 0 min 0 min 0,6 UV-I 214 W/m 12,9 km/h (3 Bft)
19.10.2013 14:44 17,5 C 16,1 C 79 % 1009,0 hPa 0,0 l/m 0 min 0 min 0,6 UV-I 195 W/m 20,6 km/h (4 Bft)
19.10.2013 14:46 17,5 C 16,1 C 79 % 1008,9 hPa 0,0 l/m 0 min 0 min 0,7 UV-I 225 W/m 15,4 km/h (3 Bft)
19.10.2013 14:48 17,5 C 16,1 C 80 % 1008,8 hPa 0,0 l/m 2 min 0 min 0,7 UV-I 267 W/m 12,9 km/h (3 Bft)
19.10.2013 14:50 17,6 C 16,1 C 79 % 1008,8 hPa 0,0 l/m 2 min 0 min 0,8 UV-I 371 W/m 12,9 km/h (3 Bft)
19.10.2013 14:52 17,6 C 16,7 C 79 % 1008,7 hPa 0,0 l/m 2 min 0 min 0,9 UV-I 415 W/m 15,4 km/h (3 Bft)
19.10.2013 14:54 17,8 C 16,7 C 79 % 1008,8 hPa 0,0 l/m 2 min 0 min 0,7 UV-I 294 W/m 12,9 km/h (3 Bft)
19.10.2013 14:56 17,9 C 16,7 C 79 % 1008,8 hPa 0,0 l/m 2 min 0 min 0,7 UV-I 327 W/m 12,9 km/h (3 Bft)
19.10.2013 14:58 17,9 C 16,7 C 79 % 1008,8 hPa 0,0 l/m 2 min 0 min 0,6 UV-I 260 W/m 15,4 km/h (3 Bft)
19.10.2013 15:00 17,9 C 16,7 C 78 % 1008,8 hPa 0,0 l/m 0 min 0 min 0,5 UV-I 181 W/m 15,4 km/h (3 Bft)
19.10.2013 15:02 17,9 C 16,7 C 78 % 1008,7 hPa 0,0 l/m 0 min 0 min 0,5 UV-I 174 W/m 12,9 km/h (3 Bft)
19.10.2013 15:06 17,7 C 16,7 C 79 % 1008,8 hPa 0,0 l/m 0 min 0 min 0,0 UV-I 179 W/m 0,0 km/h (0 Bft)
19.10.2013 15:08 17,7 C 16,7 C 79 % 1008,7 hPa 0,0 l/m 2 min 0 min 0,5 UV-I 272 W/m 10,3 km/h (2 Bft)
19.10.2013 15:10 17,7 C 16,7 C 80 % 1008,7 hPa 0,0 l/m 0 min 0 min 0,5 UV-I 213 W/m 0,0 km/h (0 Bft)
19.10.2013 15:12 17,8 C 16,7 C 80 % 1008,7 hPa 0,0 l/m 2 min 0 min 0,7 UV-I 429 W/m 0,0 km/h (0 Bft)
19.10.2013 15:14 17,9 C 16,7 C 80 % 1008,6 hPa 0,0 l/m 2 min 0 min 0,6 UV-I 424 W/m 12,9 km/h (3 Bft)
19.10.2013 15:16 18,1 C 17,2 C 79 % 1008,6 hPa 0,0 l/m 2 min 0 min 0,5 UV-I 239 W/m 7,7 km/h (2 Bft)
19.10.2013 15:18 18,1 C 17,2 C 78 % 1008,7 hPa 0,0 l/m 2 min 0 min 0,5 UV-I 311 W/m 18,0 km/h (3 Bft)
19.10.2013 15:20 18,2 C 16,7 C 78 % 1008,8 hPa 0,0 l/m 0 min 0 min 0,5 UV-I 211 W/m 10,3 km/h (2 Bft)
19.10.2013 15:22 18,1 C 16,7 C 78 % 1008,7 hPa 0,0 l/m 0 min 0 min 0,0 UV-I 174 W/m 2,6 km/h (1 Bft)
19.10.2013 15:24 18,1 C 16,7 C 78 % 1008,7 hPa 0,0 l/m 0 min 0 min 0,0 UV-I 167 W/m 18,0 km/h (3 Bft)
19.10.2013 15:26 17,9 C 16,7 C 78 % 1008,8 hPa 0,0 l/m 0 min 0 min 0,0 UV-I 158 W/m 18,0 km/h (3 Bft)
19.10.2013 15:28 17,9 C 16,7 C 79 % 1008,7 hPa 0,0 l/m 0 min 0 min 0,0 UV-I 156 W/m 15,4 km/h (3 Bft)
19.10.2013 15:30 17,8 C 16,7 C 79 % 1008,6 hPa 0,0 l/m 0 min 0 min 0,0 UV-I 162 W/m 12,9 km/h (3 Bft)
19.10.2013 15:32 17,7 C 16,7 C 79 % 1008,6 hPa 0,0 l/m 0 min 0 min 0,0 UV-I 200 W/m 10,3 km/h (2 Bft)
19.10.2013 15:34 17,7 C 16,7 C 79 % 1008,5 hPa 0,0 l/m 0 min 0 min 0,0 UV-I 188 W/m 7,7 km/h (2 Bft)
19.10.2013 15:36 17,7 C 16,7 C 80 % 1008,5 hPa 0,0 l/m 0 min 0 min 0,0 UV-I 176 W/m 0,0 km/h (0 Bft)
19.10.2013 15:38 17,8 C 16,7 C 80 % 1008,5 hPa 0,0 l/m 0 min 0 min 0,0 UV-I 185 W/m 15,4 km/h (3 Bft)
19.10.2013 15:40 17,8 C 16,7 C 80 % 1008,5 hPa 0,0 l/m 0 min 0 min 0,0 UV-I 188 W/m 10,3 km/h (2 Bft)
19.10.2013 15:42 17,8 C 16,7 C 80 % 1008,5 hPa 0,0 l/m 2 min 0 min 0,0 UV-I 287 W/m 0,0 km/h (0 Bft)
19.10.2013 15:44 18,0 C 16,7 C 80 % 1008,5 hPa 0,0 l/m 2 min 0 min 0,0 UV-I 325 W/m 10,3 km/h (2 Bft)
19.10.2013 15:46 18,2 C 17,2 C 80 % 1008,5 hPa 0,0 l/m 2 min 0 min 0,0 UV-I 336 W/m 10,3 km/h (2 Bft)
19.10.2013 15:48 18,4 C 17,2 C 80 % 1008,5 hPa 0,0 l/m 2 min 0 min 0,0 UV-I 234 W/m 0,0 km/h (0 Bft)
19.10.2013 15:50 18,4 C 17,2 C 79 % 1008,5 hPa 0,0 l/m 2 min 0 min 0,0 UV-I 306 W/m 5,1 km/h (1 Bft)
19.10.2013 15:52 18,5 C 17,2 C 79 % 1008,4 hPa 0,0 l/m 2 min 0 min 0,0 UV-I 283 W/m 2,6 km/h (1 Bft)
19.10.2013 15:54 18,6 C 17,2 C 78 % 1008,4 hPa 0,0 l/m 2 min 0 min 0,0 UV-I 232 W/m 10,3 km/h (2 Bft)
19.10.2013 15:56 18,5 C 17,2 C 78 % 1008,4 hPa 0,0 l/m 2 min 0 min 0,0 UV-I 192 W/m 7,7 km/h (2 Bft)
19.10.2013 15:58 18,5 C 17,2 C 79 % 1008,4 hPa 0,0 l/m 2 min 0 min 0,0 UV-I 218 W/m 15,4 km/h (3 Bft)
19.10.2013 16:00 18,4 C 16,7 C 79 % 1008,6 hPa 0,0 l/m 0 min 0 min 0,0 UV-I 121 W/m 12,9 km/h (3 Bft)
19.10.2013 16:02 18,4 C 16,7 C 78 % 1008,6 hPa 0,0 l/m 0 min 0 min 0,0 UV-I 111 W/m 5,1 km/h (1 Bft)
19.10.2013 16:06 18,2 C 16,7 C 79 % 1008,3 hPa 0,0 l/m 0 min 0 min 0,0 UV-I 118 W/m 10,3 km/h (2 Bft)
19.10.2013 16:08 18,1 C 16,7 C 80 % 1008,3 hPa 0,0 l/m 0 min 0 min 0,0 UV-I 127 W/m 0,0 km/h (0 Bft)
19.10.2013 16:10 18,1 C 16,7 C 81 % 1008,2 hPa 0,0 l/m 2 min 0 min 0,0 UV-I 230 W/m 0,0 km/h (0 Bft)
19.10.2013 16:12 18,1 C 16,7 C 81 % 1008,3 hPa 0,0 l/m 0 min 0 min 0,0 UV-I 156 W/m 0,0 km/h (0 Bft)
19.10.2013 16:14 18,2 C 16,7 C 81 % 1008,4 hPa 0,0 l/m 0 min 0 min 0,0 UV-I 153 W/m 10,3 km/h (2 Bft)
19.10.2013 16:16 18,2 C 16,7 C 81 % 1008,3 hPa 0,0 l/m 0 min 0 min 0,0 UV-I 142 W/m 0,0 km/h (0 Bft)
19.10.2013 16:18 18,2 C 16,7 C 81 % 1008,2 hPa 0,0 l/m 0 min 0 min 0,0 UV-I 128 W/m 0,0 km/h (0 Bft)
19.10.2013 16:20 18,2 C 16,7 C 81 % 1008,2 hPa 0,0 l/m 0 min 0 min 0,0 UV-I 118 W/m 0,0 km/h (0 Bft)
19.10.2013 16:22 18,2 C 16,7 C 81 % 1008,1 hPa 0,0 l/m 0 min 0 min 0,0 UV-I 111 W/m 0,0 km/h (0 Bft)
19.10.2013 16:24 18,2 C 16,7 C 82 % 1008,2 hPa 0,0 l/m 0 min 0 min 0,0 UV-I 102 W/m 0,0 km/h (0 Bft)
19.10.2013 16:26 18,2 C 16,7 C 82 % 1008,3 hPa 0,0 l/m 0 min 0 min 0,0 UV-I 91 W/m 0,0 km/h (0 Bft)
19.10.2013 16:28 18,1 C 16,7 C 82 % 1008,3 hPa 0,0 l/m 0 min 0 min 0,0 UV-I 83 W/m 0,0 km/h (0 Bft)
19.10.2013 16:30 18,1 C 16,1 C 82 % 1008,3 hPa 0,0 l/m 0 min 0 min 0,0 UV-I 72 W/m 0,0 km/h (0 Bft)
19.10.2013 16:32 18,1 C 16,1 C 82 % 1008,2 hPa 0,0 l/m 0 min 0 min 0,0 UV-I 67 W/m 0,0 km/h (0 Bft)
19.10.2013 16:34 18,0 C 16,1 C 82 % 1008,2 hPa 0,0 l/m 0 min 0 min 0,0 UV-I 69 W/m 0,0 km/h (0 Bft)
19.10.2013 16:36 18,0 C 16,1 C 83 % 1008,3 hPa 0,0 l/m 0 min 0 min 0,0 UV-I 74 W/m 0,0 km/h (0 Bft)
19.10.2013 16:38 18,0 C 16,1 C 83 % 1008,2 hPa 0,0 l/m 0 min 0 min 0,0 UV-I 81 W/m 0,0 km/h (0 Bft)
19.10.2013 16:40 17,9 C 16,1 C 83 % 1008,2 hPa 0,0 l/m 0 min 0 min 0,0 UV-I 79 W/m 0,0 km/h (0 Bft)
19.10.2013 16:42 17,9 C 16,1 C 83 % 1008,2 hPa 0,0 l/m 0 min 0 min 0,0 UV-I 74 W/m 0,0 km/h (0 Bft)
19.10.2013 16:44 17,9 C 16,1 C 84 % 1008,2 hPa 0,0 l/m 0 min 0 min 0,0 UV-I 74 W/m 0,0 km/h (0 Bft)
19.10.2013 16:46 17,9 C 16,1 C 84 % 1008,1 hPa 0,0 l/m 0 min 0 min 0,0 UV-I 62 W/m 0,0 km/h (0 Bft)
19.10.2013 16:48 17,9 C 15,6 C 84 % 1008,1 hPa 0,0 l/m 0 min 0 min 0,0 UV-I 60 W/m 0,0 km/h (0 Bft)
19.10.2013 16:50 17,9 C 15,6 C 84 % 1008,1 hPa 0,0 l/m 0 min 0 min 0,0 UV-I 58 W/m 0,0 km/h (0 Bft)
19.10.2013 16:52 17,9 C 15,6 C 84 % 1008,1 hPa 0,0 l/m 0 min 0 min 0,0 UV-I 63 W/m 0,0 km/h (0 Bft)
19.10.2013 16:54 17,9 C 15,6 C 84 % 1008,1 hPa 0,0 l/m 0 min 0 min 0,0 UV-I 67 W/m 0,0 km/h (0 Bft)
19.10.2013 16:56 17,9 C 15,6 C 85 % 1008,1 hPa 0,0 l/m 0 min 0 min 0,0 UV-I 69 W/m 0,0 km/h (0 Bft)
19.10.2013 16:58 17,9 C 15,6 C 85 % 1008,0 hPa 0,0 l/m 0 min 0 min 0,0 UV-I 67 W/m 0,0 km/h (0 Bft)
19.10.2013 17:00 17,8 C 15,6 C 85 % 1008,1 hPa 0,0 l/m 0 min 0 min 0,0 UV-I 67 W/m 0,0 km/h (0 Bft)
19.10.2013 17:02 17,8 C 15,6 C 85 % 1008,1 hPa 0,0 l/m 0 min 0 min 0,0 UV-I 69 W/m 0,0 km/h (0 Bft)
19.10.2013 17:06 17,8 C 15,6 C 85 % 1008,0 hPa 0,0 l/m 0 min 0 min 0,0 UV-I 62 W/m 0,0 km/h (0 Bft)
19.10.2013 17:08 17,8 C 15,6 C 86 % 1008,1 hPa 0,0 l/m 0 min 0 min 0,0 UV-I 53 W/m 0,0 km/h (0 Bft)
19.10.2013 17:10 17,7 C 15,6 C 86 % 1008,2 hPa 0,0 l/m 0 min 0 min 0,0 UV-I 42 W/m 0,0 km/h (0 Bft)
19.10.2013 17:12 17,7 C 15,0 C 87 % 1008,1 hPa 0,0 l/m 0 min 0 min 0,0 UV-I 39 W/m 0,0 km/h (0 Bft)
19.10.2013 17:14 17,6 C 15,0 C 87 % 1008,1 hPa 0,0 l/m 0 min 0 min 0,0 UV-I 37 W/m 0,0 km/h (0 Bft)
19.10.2013 17:16 17,5 C 15,0 C 87 % 1008,2 hPa 0,0 l/m 0 min 0 min 0,0 UV-I 33 W/m 0,0 km/h (0 Bft)
19.10.2013 17:18 17,5 C 15,0 C 87 % 1008,2 hPa 0,0 l/m 0 min 0 min 0,0 UV-I 32 W/m 0,0 km/h (0 Bft)
19.10.2013 17:20 17,4 C 15,0 C 87 % 1008,2 hPa 0,0 l/m 0 min 0 min 0,0 UV-I 30 W/m 0,0 km/h (0 Bft)
19.10.2013 17:22 17,4 C 15,0 C 88 % 1008,2 hPa 0,0 l/m 0 min 0 min 0,0 UV-I 26 W/m 0,0 km/h (0 Bft)
19.10.2013 17:24 17,3 C 15,0 C 88 % 1008,2 hPa 0,0 l/m 0 min 0 min 0,0 UV-I 25 W/m 0,0 km/h (0 Bft)
19.10.2013 17:26 17,3 C 15,0 C 88 % 1008,1 hPa 0,0 l/m 0 min 0 min 0,0 UV-I 23 W/m 0,0 km/h (0 Bft)
19.10.2013 17:28 17,3 C 14,4 C 89 % 1008,1 hPa 0,0 l/m 0 min 0 min 0,0 UV-I 21 W/m 0,0 km/h (0 Bft)
19.10.2013 17:30 17,2 C 14,4 C 89 % 1008,1 hPa 0,0 l/m 0 min 0 min 0,0 UV-I 18 W/m 0,0 km/h (0 Bft)
19.10.2013 17:32 17,2 C 14,4 C 89 % 1008,0 hPa 0,0 l/m 0 min 0 min 0,0 UV-I 16 W/m 0,0 km/h (0 Bft)
19.10.2013 17:34 17,1 C 14,4 C 89 % 1008,0 hPa 0,0 l/m 0 min 0 min 0,0 UV-I 14 W/m 0,0 km/h (0 Bft)
19.10.2013 17:36 17,1 C 14,4 C 90 % 1008,1 hPa 0,0 l/m 0 min 0 min 0,0 UV-I 14 W/m 0,0 km/h (0 Bft)
19.10.2013 17:38 17,0 C 14,4 C 90 % 1008,2 hPa 0,0 l/m 0 min 0 min 0,0 UV-I 14 W/m 0,0 km/h (0 Bft)
19.10.2013 17:40 16,9 C 14,4 C 90 % 1008,2 hPa 0,0 l/m 0 min 0 min 0,0 UV-I 14 W/m 0,0 km/h (0 Bft)
19.10.2013 17:42 16,8 C 14,4 C 90 % 1008,2 hPa 0,0 l/m 0 min 0 min 0,0 UV-I 14 W/m 0,0 km/h (0 Bft)
19.10.2013 17:44 16,8 C 14,4 C 90 % 1008,2 hPa 0,0 l/m 0 min 0 min 0,0 UV-I 14 W/m 0,0 km/h (0 Bft)
19.10.2013 17:46 16,8 C 14,4 C 90 % 1008,1 hPa 0,0 l/m 0 min 0 min 0,0 UV-I 14 W/m 0,0 km/h (0 Bft)
19.10.2013 17:48 16,7 C 14,4 C 91 % 1008,1 hPa 0,0 l/m 0 min 0 min 0,0 UV-I 16 W/m 0,0 km/h (0 Bft)
19.10.2013 17:50 16,7 C 13,9 C 91 % 1008,1 hPa 0,0 l/m 0 min 0 min 0,0 UV-I 16 W/m 0,0 km/h (0 Bft)
19.10.2013 17:52 16,6 C 13,9 C 91 % 1008,1 hPa 0,0 l/m 0 min 0 min 0,0 UV-I 16 W/m 0,0 km/h (0 Bft)
19.10.2013 17:54 16,6 C 13,9 C 91 % 1008,2 hPa 0,0 l/m 0 min 0 min 0,0 UV-I 16 W/m 0,0 km/h (0 Bft)
19.10.2013 17:56 16,6 C 13,9 C 91 % 1008,2 hPa 0,0 l/m 0 min 0 min 0,0 UV-I 16 W/m 0,0 km/h (0 Bft)
19.10.2013 17:58 16,6 C 13,9 C 91 % 1008,1 hPa 0,0 l/m 0 min 0 min 0,0 UV-I 14 W/m 0,0 km/h (0 Bft)
19.10.2013 18:00 16,5 C 13,9 C 92 % 1008,1 hPa 0,0 l/m 0 min 0 min 0,0 UV-I 14 W/m 0,0 km/h (0 Bft)
19.10.2013 18:02 16,4 C 13,9 C 92 % 1008,1 hPa 0,0 l/m 0 min 0 min 0,0 UV-I 12 W/m 0,0 km/h (0 Bft)
19.10.2013 18:06 16,4 C 13,9 C 92 % 1008,0 hPa 0,0 l/m 0 min 0 min 0,0 UV-I 11 W/m 0,0 km/h (0 Bft)
19.10.2013 18:08 16,3 C 13,9 C 92 % 1008,0 hPa 0,0 l/m 0 min 0 min 0,0 UV-I 9 W/m 0,0 km/h (0 Bft)
19.10.2013 18:10 16,3 C 13,9 C 92 % 1007,9 hPa 0,0 l/m 0 min 0 min 0,0 UV-I 7 W/m 0,0 km/h (0 Bft)
19.10.2013 18:12 16,3 C 13,9 C 92 % 1007,9 hPa 0,0 l/m 0 min 0 min 0,0 UV-I 7 W/m 0,0 km/h (0 Bft)
19.10.2013 18:14 16,2 C 13,9 C 93 % 1008,1 hPa 0,0 l/m 0 min 0 min 0,0 UV-I 7 W/m 0,0 km/h (0 Bft)
19.10.2013 18:16 16,2 C 13,9 C 93 % 1008,0 hPa 0,0 l/m 0 min 0 min 0,0 UV-I 5 W/m 0,0 km/h (0 Bft)
19.10.2013 18:18 16,2 C 13,9 C 93 % 1008,2 hPa 0,0 l/m 0 min 0 min 0,0 UV-I 5 W/m 0,0 km/h (0 Bft)
19.10.2013 18:20 16,2 C 13,9 C 93 % 1008,1 hPa 0,0 l/m 0 min 0 min 0,0 UV-I 5 W/m 0,0 km/h (0 Bft)
19.10.2013 18:22 16,2 C 13,9 C 93 % 1008,1 hPa 0,0 l/m 0 min 0 min 0,0 UV-I 0 W/m 0,0 km/h (0 Bft)
19.10.2013 18:24 16,2 C 13,9 C 93 % 1008,0 hPa 0,0 l/m 0 min 0 min 0,0 UV-I 0 W/m 0,0 km/h (0 Bft)
19.10.2013 18:26 16,3 C 13,9 C 93 % 1008,1 hPa 0,0 l/m 0 min 0 min 0,0 UV-I 0 W/m 0,0 km/h (0 Bft)
19.10.2013 18:28 16,3 C 13,9 C 93 % 1008,1 hPa 0,0 l/m 0 min 0 min 0,0 UV-I 0 W/m 0,0 km/h (0 Bft)
19.10.2013 18:30 16,3 C 13,9 C 93 % 1008,2 hPa 0,0 l/m 0 min 0 min 0,0 UV-I 0 W/m 0,0 km/h (0 Bft)
19.10.2013 18:32 16,3 C 13,9 C 93 % 1008,1 hPa 0,0 l/m 0 min 0 min 0,0 UV-I 0 W/m 0,0 km/h (0 Bft)
19.10.2013 18:34 16,3 C 13,9 C 93 % 1008,1 hPa 0,0 l/m 0 min 2 min 0,0 UV-I 0 W/m 0,0 km/h (0 Bft)
19.10.2013 18:36 16,4 C 13,9 C 93 % 1008,1 hPa 0,0 l/m 0 min 0 min 0,0 UV-I 0 W/m 0,0 km/h (0 Bft)
19.10.2013 18:38 16,4 C 13,9 C 93 % 1008,2 hPa 0,0 l/m 0 min 0 min 0,0 UV-I 0 W/m 0,0 km/h (0 Bft)
19.10.2013 18:40 16,4 C 13,9 C 93 % 1008,2 hPa 0,0 l/m 0 min 0 min 0,0 UV-I 0 W/m 0,0 km/h (0 Bft)
19.10.2013 18:42 16,4 C 13,9 C 93 % 1008,2 hPa 0,0 l/m 0 min 0 min 0,0 UV-I 0 W/m 0,0 km/h (0 Bft)
19.10.2013 18:44 16,4 C 13,9 C 93 % 1008,2 hPa 0,0 l/m 0 min 0 min 0,0 UV-I 0 W/m 0,0 km/h (0 Bft)
19.10.2013 18:46 16,4 C 13,9 C 93 % 1008,0 hPa 0,0 l/m 0 min 0 min 0,0 UV-I 0 W/m 0,0 km/h (0 Bft)
19.10.2013 18:48 16,5 C 13,9 C 92 % 1007,9 hPa 0,0 l/m 0 min 0 min 0,0 UV-I 0 W/m 0,0 km/h (0 Bft)
19.10.2013 18:50 16,5 C 13,9 C 93 % 1007,9 hPa 0,0 l/m 0 min 0 min 0,0 UV-I 0 W/m 0,0 km/h (0 Bft)
19.10.2013 18:52 16,6 C 13,9 C 93 % 1007,8 hPa 0,0 l/m 0 min 0 min 0,0 UV-I 0 W/m 0,0 km/h (0 Bft)
19.10.2013 18:54 16,6 C 13,9 C 92 % 1007,9 hPa 0,0 l/m 0 min 0 min 0,0 UV-I 0 W/m 0,0 km/h (0 Bft)
19.10.2013 18:56 16,6 C 13,9 C 92 % 1008,0 hPa 0,0 l/m 0 min 2 min 0,0 UV-I 0 W/m 0,0 km/h (0 Bft)
19.10.2013 18:58 16,5 C 13,9 C 92 % 1007,9 hPa 0,0 l/m 0 min 0 min 0,0 UV-I 0 W/m 0,0 km/h (0 Bft)
19.10.2013 19:00 16,5 C 13,9 C 92 % 1007,9 hPa 0,0 l/m 0 min 2 min 0,0 UV-I 0 W/m 0,0 km/h (0 Bft)
19.10.2013 19:02 16,5 C 13,9 C 92 % 1007,9 hPa 0,0 l/m 0 min 2 min 0,0 UV-I 0 W/m 0,0 km/h (0 Bft)
19.10.2013 19:06 16,5 C 13,9 C 93 % 1008,0 hPa 0,0 l/m 0 min 2 min 0,0 UV-I 0 W/m 0,0 km/h (0 Bft)
19.10.2013 19:08 16,6 C 13,9 C 92 % 1008,1 hPa 0,0 l/m 0 min 2 min 0,0 UV-I 0 W/m 0,0 km/h (0 Bft)
19.10.2013 19:10 16,6 C 13,9 C 92 % 1008,3 hPa 0,0 l/m 0 min 0 min 0,0 UV-I 0 W/m 0,0 km/h (0 Bft)
19.10.2013 19:12 16,7 C 13,9 C 92 % 1008,1 hPa 0,0 l/m 0 min 0 min 0,0 UV-I 0 W/m 0,0 km/h (0 Bft)
19.10.2013 19:14 16,7 C 13,9 C 92 % 1008,2 hPa 0,0 l/m 0 min 0 min 0,0 UV-I 0 W/m 5,1 km/h (1 Bft)
19.10.2013 19:16 16,8 C 13,9 C 92 % 1008,5 hPa 0,0 l/m 0 min 0 min 0,0 UV-I 0 W/m 0,0 km/h (0 Bft)
19.10.2013 19:18 16,9 C 13,9 C 91 % 1008,5 hPa 0,0 l/m 0 min 0 min 0,0 UV-I 0 W/m 5,1 km/h (1 Bft)
19.10.2013 19:20 16,9 C 14,4 C 91 % 1008,5 hPa 0,0 l/m 0 min 0 min 0,0 UV-I 0 W/m 7,7 km/h (2 Bft)
19.10.2013 19:22 17,1 C 14,4 C 91 % 1008,5 hPa 0,0 l/m 0 min 0 min 0,0 UV-I 0 W/m 2,6 km/h (1 Bft)
19.10.2013 19:24 17,1 C 14,4 C 90 % 1008,6 hPa 0,0 l/m 0 min 0 min 0,0 UV-I 0 W/m 10,3 km/h (2 Bft)
19.10.2013 19:26 17,1 C 14,4 C 90 % 1008,6 hPa 0,0 l/m 0 min 0 min 0,0 UV-I 0 W/m 0,0 km/h (0 Bft)
19.10.2013 19:28 17,1 C 14,4 C 90 % 1008,5 hPa 0,0 l/m 0 min 0 min 0,0 UV-I 0 W/m 5,1 km/h (1 Bft)
19.10.2013 19:30 17,2 C 14,4 C 90 % 1008,4 hPa 0,0 l/m 0 min 0 min 0,0 UV-I 0 W/m 10,3 km/h (2 Bft)
19.10.2013 19:32 17,2 C 14,4 C 90 % 1008,3 hPa 0,0 l/m 0 min 0 min 0,0 UV-I 0 W/m 12,9 km/h (3 Bft)
19.10.2013 19:34 17,2 C 14,4 C 89 % 1008,4 hPa 0,0 l/m 0 min 0 min 0,0 UV-I 0 W/m 0,0 km/h (0 Bft)
19.10.2013 19:36 17,2 C 14,4 C 89 % 1008,4 hPa 0,0 l/m 0 min 0 min 0,0 UV-I 0 W/m 7,7 km/h (2 Bft)
19.10.2013 19:38 17,2 C 14,4 C 89 % 1008,5 hPa 0,0 l/m 0 min 0 min 0,0 UV-I 0 W/m 2,6 km/h (1 Bft)
19.10.2013 19:40 17,2 C 14,4 C 89 % 1008,5 hPa 0,0 l/m 0 min 0 min 0,0 UV-I 0 W/m 0,0 km/h (0 Bft)
19.10.2013 19:42 17,2 C 14,4 C 89 % 1008,4 hPa 0,0 l/m 0 min 0 min 0,0 UV-I 0 W/m 0,0 km/h (0 Bft)
19.10.2013 19:44 17,2 C 14,4 C 89 % 1008,5 hPa 0,0 l/m 0 min 0 min 0,0 UV-I 0 W/m 0,0 km/h (0 Bft)
19.10.2013 19:46 17,1 C 14,4 C 89 % 1008,3 hPa 0,0 l/m 0 min 0 min 0,0 UV-I 0 W/m 0,0 km/h (0 Bft)
19.10.2013 19:48 17,1 C 14,4 C 89 % 1008,4 hPa 0,0 l/m 0 min 0 min 0,0 UV-I 0 W/m 0,0 km/h (0 Bft)
19.10.2013 19:50 17,2 C 14,4 C 89 % 1008,3 hPa 0,0 l/m 0 min 0 min 0,0 UV-I 0 W/m 0,0 km/h (0 Bft)
19.10.2013 19:52 17,1 C 14,4 C 89 % 1008,4 hPa 0,0 l/m 0 min 0 min 0,0 UV-I 0 W/m 0,0 km/h (0 Bft)
19.10.2013 19:54 17,1 C 14,4 C 89 % 1008,3 hPa 0,0 l/m 0 min 0 min 0,0 UV-I 0 W/m 0,0 km/h (0 Bft)
19.10.2013 19:56 17,1 C 14,4 C 89 % 1008,3 hPa 0,0 l/m 0 min 0 min 0,0 UV-I 0 W/m 0,0 km/h (0 Bft)
19.10.2013 19:58 17,1 C 14,4 C 89 % 1008,5 hPa 0,0 l/m 0 min 0 min 0,0 UV-I 0 W/m 0,0 km/h (0 Bft)
19.10.2013 20:00 17,1 C 14,4 C 89 % 1008,4 hPa 0,0 l/m 0 min 0 min 0,0 UV-I 0 W/m 2,6 km/h (1 Bft)
19.10.2013 20:02 17,0 C 14,4 C 89 % 1008,4 hPa 0,0 l/m 0 min 0 min 0,0 UV-I 0 W/m 7,7 km/h (2 Bft)
19.10.2013 20:06 17,0 C 14,4 C 89 % 1008,4 hPa 0,0 l/m 0 min 0 min 0,0 UV-I 0 W/m 5,1 km/h (1 Bft)
19.10.2013 20:08 17,0 C 14,4 C 90 % 1008,5 hPa 0,0 l/m 0 min 0 min 0,0 UV-I 0 W/m 0,0 km/h (0 Bft)
19.10.2013 20:10 17,0 C 14,4 C 90 % 1008,5 hPa 0,0 l/m 0 min 0 min 0,0 UV-I 0 W/m 0,0 km/h (0 Bft)
19.10.2013 20:12 16,9 C 14,4 C 89 % 1008,6 hPa 0,0 l/m 0 min 0 min 0,0 UV-I 0 W/m 2,6 km/h (1 Bft)
19.10.2013 20:14 16,9 C 14,4 C 89 % 1008,6 hPa 0,0 l/m 0 min 0 min 0,0 UV-I 0 W/m 2,6 km/h (1 Bft)
19.10.2013 20:16 16,9 C 14,4 C 89 % 1008,6 hPa 0,0 l/m 0 min 0 min 0,0 UV-I 0 W/m 0,0 km/h (0 Bft)
19.10.2013 20:18 16,9 C 14,4 C 89 % 1008,6 hPa 0,0 l/m 0 min 0 min 0,0 UV-I 0 W/m 5,1 km/h (1 Bft)
19.10.2013 20:20 16,9 C 14,4 C 90 % 1008,6 hPa 0,0 l/m 0 min 0 min 0,0 UV-I 0 W/m 0,0 km/h (0 Bft)
19.10.2013 20:22 16,9 C 14,4 C 90 % 1008,7 hPa 0,0 l/m 0 min 0 min 0,0 UV-I 0 W/m 0,0 km/h (0 Bft)
19.10.2013 20:24 16,8 C 14,4 C 90 % 1008,7 hPa 0,0 l/m 0 min 0 min 0,0 UV-I 0 W/m 0,0 km/h (0 Bft)
19.10.2013 20:26 16,8 C 14,4 C 90 % 1008,6 hPa 0,0 l/m 0 min 0 min 0,0 UV-I 0 W/m 2,6 km/h (1 Bft)
19.10.2013 20:28 16,8 C 14,4 C 90 % 1008,6 hPa 0,0 l/m 0 min 0 min 0,0 UV-I 0 W/m 0,0 km/h (0 Bft)
19.10.2013 20:30 16,8 C 14,4 C 90 % 1008,6 hPa 0,0 l/m 0 min 0 min 0,0 UV-I 0 W/m 0,0 km/h (0 Bft)
19.10.2013 20:32 16,8 C 14,4 C 90 % 1008,6 hPa 0,0 l/m 0 min 0 min 0,0 UV-I 0 W/m 0,0 km/h (0 Bft)
19.10.2013 20:34 16,7 C 14,4 C 90 % 1008,7 hPa 0,0 l/m 0 min 0 min 0,0 UV-I 0 W/m 0,0 km/h (0 Bft)
19.10.2013 20:36 16,7 C 14,4 C 90 % 1008,7 hPa 0,0 l/m 0 min 0 min 0,0 UV-I 0 W/m 2,6 km/h (1 Bft)
19.10.2013 20:38 16,7 C 14,4 C 90 % 1008,7 hPa 0,0 l/m 0 min 0 min 0,0 UV-I 0 W/m 0,0 km/h (0 Bft)
19.10.2013 20:40 16,7 C 14,4 C 90 % 1008,7 hPa 0,0 l/m 0 min 0 min 0,0 UV-I 0 W/m 7,7 km/h (2 Bft)
19.10.2013 20:42 16,8 C 14,4 C 90 % 1008,7 hPa 0,0 l/m 0 min 0 min 0,0 UV-I 0 W/m 10,3 km/h (2 Bft)
19.10.2013 20:44 16,8 C 15,0 C 90 % 1008,7 hPa 0,0 l/m 0 min 0 min 0,0 UV-I 0 W/m 12,9 km/h (3 Bft)
19.10.2013 20:46 16,8 C 15,0 C 90 % 1008,6 hPa 0,0 l/m 0 min 0 min 0,0 UV-I 0 W/m 10,3 km/h (2 Bft)
19.10.2013 20:48 16,9 C 15,0 C 89 % 1008,7 hPa 0,0 l/m 0 min 0 min 0,0 UV-I 0 W/m 2,6 km/h (1 Bft)
19.10.2013 20:50 16,9 C 15,0 C 89 % 1008,8 hPa 0,0 l/m 0 min 0 min 0,0 UV-I 0 W/m 15,4 km/h (3 Bft)
19.10.2013 20:52 17,1 C 15,0 C 89 % 1008,7 hPa 0,0 l/m 0 min 0 min 0,0 UV-I 0 W/m 15,4 km/h (3 Bft)
19.10.2013 20:54 17,1 C 15,0 C 88 % 1008,7 hPa 0,0 l/m 0 min 0 min 0,0 UV-I 0 W/m 15,4 km/h (3 Bft)
19.10.2013 20:56 17,1 C 15,0 C 88 % 1008,8 hPa 0,0 l/m 0 min 0 min 0,0 UV-I 0 W/m 0,0 km/h (0 Bft)
19.10.2013 20:58 17,2 C 15,0 C 87 % 1008,7 hPa 0,0 l/m 0 min 0 min 0,0 UV-I 0 W/m 10,3 km/h (2 Bft)
19.10.2013 21:00 17,2 C 15,0 C 87 % 1008,8 hPa 0,0 l/m 0 min 0 min 0,0 UV-I 0 W/m 10,3 km/h (2 Bft)
19.10.2013 21:02 17,3 C 15,0 C 87 % 1008,8 hPa 0,0 l/m 0 min 0 min 0,0 UV-I 0 W/m 15,4 km/h (3 Bft)
19.10.2013 21:06 17,4 C 15,6 C 86 % 1008,9 hPa 0,0 l/m 0 min 0 min 0,0 UV-I 0 W/m 20,6 km/h (4 Bft)
19.10.2013 21:08 17,5 C 15,6 C 86 % 1008,9 hPa 0,0 l/m 0 min 0 min 0,0 UV-I 0 W/m 12,9 km/h (3 Bft)
19.10.2013 21:10 17,6 C 15,6 C 86 % 1008,9 hPa 0,0 l/m 0 min 0 min 0,0 UV-I 0 W/m 12,9 km/h (3 Bft)
19.10.2013 21:12 17,6 C 15,6 C 85 % 1008,8 hPa 0,0 l/m 0 min 0 min 0,0 UV-I 0 W/m 12,9 km/h (3 Bft)
19.10.2013 21:14 17,6 C 15,6 C 85 % 1009,0 hPa 0,0 l/m 0 min 0 min 0,0 UV-I 0 W/m 15,4 km/h (3 Bft)
19.10.2013 21:16 17,7 C 15,6 C 85 % 1008,9 hPa 0,0 l/m 0 min 0 min 0,0 UV-I 0 W/m 7,7 km/h (2 Bft)
19.10.2013 21:18 17,7 C 15,6 C 85 % 1008,9 hPa 0,0 l/m 0 min 0 min 0,0 UV-I 0 W/m 18,0 km/h (3 Bft)
19.10.2013 21:20 17,7 C 15,6 C 85 % 1008,9 hPa 0,0 l/m 0 min 0 min 0,0 UV-I 0 W/m 12,9 km/h (3 Bft)
19.10.2013 21:22 17,7 C 15,6 C 85 % 1008,9 hPa 0,0 l/m 0 min 0 min 0,0 UV-I 0 W/m 5,1 km/h (1 Bft)
19.10.2013 21:24 17,6 C 15,0 C 85 % 1008,9 hPa 0,0 l/m 0 min 0 min 0,0 UV-I 0 W/m 12,9 km/h (3 Bft)
19.10.2013 21:26 17,6 C 15,0 C 85 % 1008,8 hPa 0,0 l/m 0 min 0 min 0,0 UV-I 0 W/m 12,9 km/h (3 Bft)
19.10.2013 21:28 17,6 C 15,0 C 85 % 1008,8 hPa 0,0 l/m 0 min 0 min 0,0 UV-I 0 W/m 2,6 km/h (1 Bft)
19.10.2013 21:30 17,6 C 15,0 C 85 % 1009,0 hPa 0,0 l/m 0 min 0 min 0,0 UV-I 0 W/m 15,4 km/h (3 Bft)
19.10.2013 21:32 17,6 C 15,0 C 85 % 1009,0 hPa 0,0 l/m 0 min 0 min 0,0 UV-I 0 W/m 5,1 km/h (1 Bft)
19.10.2013 21:34 17,6 C 15,0 C 85 % 1009,0 hPa 0,0 l/m 0 min 0 min 0,0 UV-I 0 W/m 2,6 km/h (1 Bft)
19.10.2013 21:36 17,6 C 15,0 C 85 % 1009,0 hPa 0,0 l/m 0 min 0 min 0,0 UV-I 0 W/m 18,0 km/h (3 Bft)
19.10.2013 21:38 17,6 C 15,6 C 85 % 1009,0 hPa 0,0 l/m 0 min 0 min 0,0 UV-I 0 W/m 15,4 km/h (3 Bft)
19.10.2013 21:40 17,6 C 15,6 C 85 % 1009,0 hPa 0,0 l/m 0 min 0 min 0,0 UV-I 0 W/m 2,6 km/h (1 Bft)
19.10.2013 21:42 17,6 C 15,0 C 85 % 1009,1 hPa 0,0 l/m 0 min 0 min 0,0 UV-I 0 W/m 18,0 km/h (3 Bft)
19.10.2013 21:44 17,5 C 15,0 C 85 % 1009,2 hPa 0,0 l/m 0 min 0 min 0,0 UV-I 0 W/m 12,9 km/h (3 Bft)
19.10.2013 21:46 17,5 C 15,0 C 85 % 1009,2 hPa 0,0 l/m 0 min 0 min 0,0 UV-I 0 W/m 18,0 km/h (3 Bft)
19.10.2013 21:48 17,5 C 15,0 C 85 % 1009,2 hPa 0,0 l/m 0 min 0 min 0,0 UV-I 0 W/m 7,7 km/h (2 Bft)
19.10.2013 21:50 17,4 C 15,0 C 85 % 1009,1 hPa 0,0 l/m 0 min 0 min 0,0 UV-I 0 W/m 15,4 km/h (3 Bft)
19.10.2013 21:52 17,4 C 15,0 C 85 % 1009,1 hPa 0,0 l/m 0 min 0 min 0,0 UV-I 0 W/m 0,0 km/h (0 Bft)
19.10.2013 21:54 17,4 C 15,0 C 85 % 1009,2 hPa 0,0 l/m 0 min 0 min 0,0 UV-I 0 W/m 10,3 km/h (2 Bft)
19.10.2013 21:56 17,4 C 15,0 C 85 % 1009,2 hPa 0,0 l/m 0 min 0 min 0,0 UV-I 0 W/m 18,0 km/h (3 Bft)
19.10.2013 21:58 17,4 C 15,0 C 85 % 1009,3 hPa 0,0 l/m 0 min 0 min 0,0 UV-I 0 W/m 12,9 km/h (3 Bft)
19.10.2013 22:00 17,4 C 15,0 C 85 % 1009,2 hPa 0,0 l/m 0 min 0 min 0,0 UV-I 0 W/m 5,1 km/h (1 Bft)
19.10.2013 22:02 17,4 C 15,0 C 85 % 1009,1 hPa 0,0 l/m 0 min 0 min 0,0 UV-I 0 W/m 2,6 km/h (1 Bft)
19.10.2013 22:06 17,3 C 15,0 C 86 % 1009,2 hPa 0,0 l/m 0 min 0 min 0,0 UV-I 0 W/m 12,9 km/h (3 Bft)
19.10.2013 22:08 17,2 C 15,0 C 86 % 1009,3 hPa 0,0 l/m 0 min 0 min 0,0 UV-I 0 W/m 10,3 km/h (2 Bft)
19.10.2013 22:10 17,2 C 15,0 C 86 % 1009,3 hPa 0,0 l/m 0 min 0 min 0,0 UV-I 0 W/m 2,6 km/h (1 Bft)
19.10.2013 22:12 17,2 C 15,0 C 86 % 1009,4 hPa 0,0 l/m 0 min 0 min 0,0 UV-I 0 W/m 5,1 km/h (1 Bft)
19.10.2013 22:14 17,2 C 15,0 C 86 % 1009,4 hPa 0,0 l/m 0 min 0 min 0,0 UV-I 0 W/m 18,0 km/h (3 Bft)
19.10.2013 22:16 17,2 C 15,0 C 86 % 1009,4 hPa 0,0 l/m 0 min 0 min 0,0 UV-I 0 W/m 2,6 km/h (1 Bft)
19.10.2013 22:18 17,2 C 15,0 C 86 % 1009,4 hPa 0,0 l/m 0 min 0 min 0,0 UV-I 0 W/m 2,6 km/h (1 Bft)
19.10.2013 22:20 17,2 C 15,0 C 86 % 1009,4 hPa 0,0 l/m 0 min 0 min 0,0 UV-I 0 W/m 7,7 km/h (2 Bft)
19.10.2013 22:22 17,2 C 15,0 C 87 % 1009,4 hPa 0,0 l/m 0 min 0 min 0,0 UV-I 0 W/m 0,0 km/h (0 Bft)
19.10.2013 22:24 17,2 C 15,0 C 86 % 1009,5 hPa 0,0 l/m 0 min 0 min 0,0 UV-I 0 W/m 2,6 km/h (1 Bft)
19.10.2013 22:26 17,2 C 15,0 C 87 % 1009,5 hPa 0,0 l/m 0 min 0 min 0,0 UV-I 0 W/m 7,7 km/h (2 Bft)
19.10.2013 22:28 17,2 C 15,0 C 87 % 1009,6 hPa 0,0 l/m 0 min 0 min 0,0 UV-I 0 W/m 10,3 km/h (2 Bft)
19.10.2013 22:30 17,2 C 15,0 C 86 % 1009,5 hPa 0,0 l/m 0 min 0 min 0,0 UV-I 0 W/m 7,7 km/h (2 Bft)
19.10.2013 22:32 17,2 C 15,0 C 86 % 1009,5 hPa 0,0 l/m 0 min 0 min 0,0 UV-I 0 W/m 12,9 km/h (3 Bft)
19.10.2013 22:34 17,2 C 15,0 C 86 % 1009,5 hPa 0,0 l/m 0 min 0 min 0,0 UV-I 0 W/m 0,0 km/h (0 Bft)
19.10.2013 22:36 17,2 C 15,0 C 86 % 1009,5 hPa 0,0 l/m 0 min 0 min 0,0 UV-I 0 W/m 2,6 km/h (1 Bft)
19.10.2013 22:38 17,2 C 15,0 C 86 % 1009,4 hPa 0,0 l/m 0 min 0 min 0,0 UV-I 0 W/m 10,3 km/h (2 Bft)
19.10.2013 22:40 17,2 C 15,0 C 87 % 1009,4 hPa 0,0 l/m 0 min 0 min 0,0 UV-I 0 W/m 15,4 km/h (3 Bft)
19.10.2013 22:42 17,2 C 15,0 C 86 % 1009,5 hPa 0,0 l/m 0 min 0 min 0,0 UV-I 0 W/m 7,7 km/h (2 Bft)
19.10.2013 22:44 17,2 C 15,0 C 86 % 1009,6 hPa 0,0 l/m 0 min 0 min 0,0 UV-I 0 W/m 7,7 km/h (2 Bft)
19.10.2013 22:46 17,2 C 15,0 C 86 % 1009,6 hPa 0,0 l/m 0 min 0 min 0,0 UV-I 0 W/m 5,1 km/h (1 Bft)
19.10.2013 22:48 17,2 C 15,0 C 87 % 1009,6 hPa 0,0 l/m 0 min 0 min 0,0 UV-I 0 W/m 12,9 km/h (3 Bft)
19.10.2013 22:50 17,2 C 15,0 C 87 % 1009,7 hPa 0,0 l/m 0 min 0 min 0,0 UV-I 0 W/m 12,9 km/h (3 Bft)
19.10.2013 22:52 17,2 C 15,0 C 87 % 1009,8 hPa 0,0 l/m 0 min 0 min 0,0 UV-I 0 W/m 0,0 km/h (0 Bft)
19.10.2013 22:54 17,2 C 15,0 C 87 % 1009,8 hPa 0,0 l/m 0 min 0 min 0,0 UV-I 0 W/m 7,7 km/h (2 Bft)
19.10.2013 22:56 17,1 C 15,0 C 87 % 1009,8 hPa 0,0 l/m 0 min 0 min 0,0 UV-I 0 W/m 7,7 km/h (2 Bft)
19.10.2013 22:58 17,1 C 15,0 C 87 % 1009,9 hPa 0,0 l/m 0 min 0 min 0,0 UV-I 0 W/m 20,6 km/h (4 Bft)
19.10.2013 23:00 17,1 C 15,0 C 87 % 1009,8 hPa 0,0 l/m 0 min 0 min 0,0 UV-I 0 W/m 15,4 km/h (3 Bft)
19.10.2013 23:02 17,1 C 15,0 C 87 % 1009,9 hPa 0,0 l/m 0 min 0 min 0,0 UV-I 0 W/m 5,1 km/h (1 Bft)
19.10.2013 23:06 17,1 C 15,0 C 87 % 1009,9 hPa 0,0 l/m 0 min 0 min 0,0 UV-I 0 W/m 10,3 km/h (2 Bft)
19.10.2013 23:08 17,1 C 15,0 C 87 % 1009,9 hPa 0,0 l/m 0 min 0 min 0,0 UV-I 0 W/m 7,7 km/h (2 Bft)
19.10.2013 23:10 17,1 C 15,0 C 87 % 1009,9 hPa 0,0 l/m 0 min 0 min 0,0 UV-I 0 W/m 0,0 km/h (0 Bft)
19.10.2013 23:12 17,0 C 15,0 C 87 % 1010,0 hPa 0,0 l/m 0 min 0 min 0,0 UV-I 0 W/m 7,7 km/h (2 Bft)
19.10.2013 23:14 17,0 C 15,0 C 87 % 1010,0 hPa 0,0 l/m 0 min 0 min 0,0 UV-I 0 W/m 10,3 km/h (2 Bft)
19.10.2013 23:16 17,0 C 15,0 C 87 % 1010,0 hPa 0,0 l/m 0 min 0 min 0,0 UV-I 0 W/m 0,0 km/h (0 Bft)
19.10.2013 23:18 16,9 C 15,0 C 87 % 1010,0 hPa 0,0 l/m 0 min 0 min 0,0 UV-I 0 W/m 0,0 km/h (0 Bft)
19.10.2013 23:20 16,9 C 14,4 C 87 % 1010,1 hPa 0,0 l/m 0 min 0 min 0,0 UV-I 0 W/m 7,7 km/h (2 Bft)
19.10.2013 23:22 16,9 C 14,4 C 88 % 1010,2 hPa 0,0 l/m 0 min 0 min 0,0 UV-I 0 W/m 2,6 km/h (1 Bft)
19.10.2013 23:24 16,8 C 14,4 C 88 % 1010,1 hPa 0,0 l/m 0 min 0 min 0,0 UV-I 0 W/m 0,0 km/h (0 Bft)
19.10.2013 23:26 16,8 C 14,4 C 88 % 1010,0 hPa 0,0 l/m 0 min 0 min 0,0 UV-I 0 W/m 7,7 km/h (2 Bft)
19.10.2013 23:28 16,8 C 14,4 C 88 % 1010,0 hPa 0,0 l/m 0 min 0 min 0,0 UV-I 0 W/m 10,3 km/h (2 Bft)
19.10.2013 23:30 16,7 C 14,4 C 88 % 1010,0 hPa 0,0 l/m 0 min 0 min 0,0 UV-I 0 W/m 12,9 km/h (3 Bft)
19.10.2013 23:32 16,7 C 14,4 C 88 % 1010,1 hPa 0,0 l/m 0 min 0 min 0,0 UV-I 0 W/m 0,0 km/h (0 Bft)
19.10.2013 23:34 16,7 C 14,4 C 88 % 1010,0 hPa 0,0 l/m 0 min 0 min 0,0 UV-I 0 W/m 0,0 km/h (0 Bft)
19.10.2013 23:36 16,7 C 14,4 C 89 % 1010,0 hPa 0,0 l/m 0 min 0 min 0,0 UV-I 0 W/m 5,1 km/h (1 Bft)
19.10.2013 23:38 16,7 C 14,4 C 89 % 1010,1 hPa 0,0 l/m 0 min 0 min 0,0 UV-I 0 W/m 10,3 km/h (2 Bft)
19.10.2013 23:40 16,7 C 14,4 C 89 % 1010,1 hPa 0,0 l/m 0 min 0 min 0,0 UV-I 0 W/m 0,0 km/h (0 Bft)
19.10.2013 23:42 16,7 C 14,4 C 89 % 1010,1 hPa 0,0 l/m 0 min 0 min 0,0 UV-I 0 W/m 0,0 km/h (0 Bft)
19.10.2013 23:44 16,8 C 14,4 C 89 % 1010,1 hPa 0,0 l/m 0 min 0 min 0,0 UV-I 0 W/m 2,6 km/h (1 Bft)
19.10.2013 23:46 16,8 C 14,4 C 89 % 1010,2 hPa 0,0 l/m 0 min 0 min 0,0 UV-I 0 W/m 5,1 km/h (1 Bft)
19.10.2013 23:48 16,8 C 14,4 C 89 % 1010,2 hPa 0,0 l/m 0 min 0 min 0,0 UV-I 0 W/m 10,3 km/h (2 Bft)
19.10.2013 23:50 16,8 C 14,4 C 89 % 1010,2 hPa 0,0 l/m 0 min 0 min 0,0 UV-I 0 W/m 0,0 km/h (0 Bft)
19.10.2013 23:52 16,7 C 14,4 C 89 % 1010,3 hPa 0,0 l/m 0 min 0 min 0,0 UV-I 0 W/m 5,1 km/h (1 Bft)
19.10.2013 23:54 16,7 C 14,4 C 89 % 1010,2 hPa 0,0 l/m 0 min 0 min 0,0 UV-I 0 W/m 0,0 km/h (0 Bft)
19.10.2013 23:56 16,7 C 14,4 C 89 % 1010,3 hPa 0,0 l/m 0 min 0 min 0,0 UV-I 0 W/m 2,6 km/h (1 Bft)
19.10.2013 23:58 16,7 C 14,4 C 89 % 1010,2 hPa 0,0 l/m 0 min 0 min 0,0 UV-I 0 W/m 0,0 km/h (0 Bft)
_ Min-Zeit 08:10 06:52 13:58 18:52 - - - - - 00:02
Minimum _ 9,3 C 7,8 C 77 % 1007,8 hPa - - - - - 0,0 km/h (0 Bft)
_ Max-Zeit 15:54 15:16 01:32 00:00 00:00 09:14 18:34 13:32 13:32 12:18
Maximum _ 18,6 C 17,2 C 95 % 1015,6 hPa 0,0 l/m 2 min 2 min 1,3 UV-I 513 W/m 33,5 km/h
SO (5 Bft)
Durchschnitt _ 13,8 C 12,1 C 87 % 1010,5 hPa #0,0 l/m #5:16 h #12 min. 0,8 UV-I 194 W/m 10,5 km/h (2 Bft)
© 2013 W. Hausmann